GFSMA_700_rhum_078.txt.gz
RH
45 46 47 48 48 48 49 49 50 49 49 49 49 49 47 48 49 52 54 55 55 53 47 39 44 43 43 44 42 42 39 38 39 40 40 41 42 42 40 38 37 36 36
45 47 49 49 48 48 48 49 50 50 51 52 53 53 50 47 48 51 53 57 57 56 51 42 45 47 44 44 44 46 44 42 42 43 44 46 46 46 45 43 41 40 39
52 53 56 56 54 52 52 52 52 52 53 55 56 56 53 49 50 52 54 56 59 59 57 48 47 48 50 50 47 48 51 48 46 46 50 51 50 51 50 45 44 43 42
42 44 44 49 50 50 50 52 56 58 59 59 58 57 54 51 51 53 53 56 60 61 60 54 51 52 53 55 53 52 57 55 52 51 56 58 56 52 51 49 48 48 47
40 43 40 37 35 35 32 31 35 44 50 52 54 54 52 50 48 53 57 59 61 64 64 62 56 57 57 59 60 58 61 63 61 61 64 63 60 60 58 58 56 52 50
41 47 45 45 45 43 42 41 39 40 41 44 47 50 54 56 56 55 62 66 65 66 67 68 67 64 66 67 69 69 66 68 69 70 72 70 69 68 65 62 60 63 63
44 45 46 45 42 45 48 48 47 47 46 48 50 49 55 60 62 64 65 70 72 74 76 74 71 75 77 78 80 80 78 73 73 76 79 78 76 72 71 71 69 73 74
46 46 50 51 54 56 57 55 52 53 52 55 58 63 63 63 63 76 78 77 81 80 80 82 88 91 93 88 87 98 100 100 98 89 86 87 84 81 80 84 84 82 81
51 55 58 58 63 67 66 64 56 53 54 53 59 70 70 69 73 72 79 82 87 91 94 95 96 98 99 100 100 100 99 100 99 100 100 98 98 99 98 95 90 97 96
43 43 54 63 67 62 58 58 59 45 43 47 60 70 74 72 75 74 75 74 80 89 99 100 100 100 100 100 100 99 100 100 100 100 100 100 100 100 100 100 100 99 100
31 44 48 45 42 39 35 33 30 32 45 47 50 54 62 66 66 70 70 80 84 84 89 94 97 98 100 100 100 100 100 100 100 99 100 100 100 100 100 100 100 100 100
18 19 21 26 30 31 34 38 40 49 49 57 47 58 86 77 60 91 67 86 98 96 98 99 100 97 100 100 94 96 97 99 100 99 99 99 99 99 99 99 99 99 99
22 24 25 32 37 42 41 38 41 50 51 49 48 52 54 68 62 65 95 74 83 91 99 96 100 98 100 99 98 100 99 100 98 99 99 99 97 99 99 98 99 99 95
22 23 23 23 26 37 41 28 27 35 33 36 39 42 46 52 56 58 65 68 82 97 100 98 79 98 97 100 97 99 97 99 96 98 99 90 85 92 96 92 99 93 90
16 17 19 22 25 27 30 32 35 36 36 36 38 40 41 42 44 46 49 50 56 58 57 58 83 85 96 100 99 98 99 95 98 99 99 100 99 99 98 98 100 98 98
29 32 34 35 36 36 37 37 37 37 35 37 40 43 45 47 49 52 52 52 53 51 52 50 52 78 100 92 95 98 99 94 95 99 100 98 100 99 98 96 94 89 84
35 36 39 37 36 37 38 38 32 30 32 33 35 33 37 39 40 43 49 63 68 59 57 59 64 79 82 100 100 99 100 98 99 99 99 98 95 88 83 53 31 20 15
36 35 33 35 38 34 27 23 24 27 26 30 33 34 33 38 41 46 54 58 68 64 65 65 68 77 90 98 84 99 96 98 99 97 94 77 28 14 9 7 5 3 2
31 31 28 19 18 22 23 21 30 34 34 38 42 48 43 48 53 52 60 65 72 77 78 82 96 98 98 100 100 98 94 96 88 38 13 8 5 2 2 4 7 10 11
16 13 17 23 26 19 22 40 42 39 44 47 52 52 48 46 46 50 56 61 76 92 88 88 100 99 96 99 96 98 91 39 11 7 4 2 4 10 11 10 10 11 12
19 26 30 21 24 31 43 41 38 40 46 51 54 49 54 52 56 58 59 71 82 95 99 96 93 98 98 93 82 28 11 6 3 2 4 12 12 10 11 11 12 13 15
33 30 27 36 44 46 44 42 42 47 53 54 54 30 19 32 43 60 71 76 82 87 89 94 99 96 86 68 24 7 3 2 2 11 14 13 14 16 17 17 16 16 16
32 32 44 46 52 49 48 49 46 37 16 8 8 7 6 6 4 4 4 6 10 20 31 24 14 10 7 5 3 2 2 7 15 15 16 17 21 25 26 25 24 24 25
35 45 54 59 55 53 45 18 10 9 9 10 10 8 7 6 4 3 3 2 2 2 2 2 2 2 2 2 2 3 12 16 15 16 18 23 26 29 29 28 28 30 32
50 61 63 58 49 19 12 10 9 10 12 13 14 14 12 10 8 5 4 2 2 2 2 2 2 2 2 2 6 15 18 17 17 19 22 22 27 30 33 35 34 37 39
67 63 59 28 14 12 11 9 9 11 12 15 17 17 17 14 11 7 5 3 2 2 2 2 2 2 4 10 17 19 19 20 23 26 26 24 27 26 30 34 36 37 37

GFSMA_700_rhum_081.txt.gz
RH
45 46 46 47 48 48 49 49 50 50 51 51 52 52 53 53 50 50 52 54 56 56 56 56 47 43 47 46 44 43 44 43 41 41 42 42 44 46 46 44 42 40 38
43 44 45 47 49 49 49 49 50 50 51 51 52 54 56 56 54 52 50 53 56 58 59 58 56 47 47 49 49 47 45 47 45 44 45 46 48 48 48 48 46 43 41
43 47 53 57 57 57 56 56 57 57 58 58 60 61 61 60 59 58 54 53 55 58 62 62 60 56 52 52 52 53 49 48 49 48 48 49 52 54 53 53 50 47 46
53 52 50 53 51 48 45 44 40 41 45 50 55 57 57 55 54 52 51 56 60 61 64 67 66 64 59 57 57 58 57 52 54 54 52 52 55 58 58 55 54 53 52
35 41 45 45 41 38 37 40 39 38 37 37 39 42 46 48 51 52 55 59 64 68 68 69 72 72 69 66 65 67 67 60 57 58 58 56 59 63 61 59 59 61 60
39 37 39 46 47 46 46 45 46 45 44 44 44 41 42 45 45 46 53 63 72 74 77 74 78 79 81 82 79 77 78 76 64 61 62 62 63 68 66 66 67 66 63
44 41 42 45 46 46 48 51 53 54 52 51 49 48 51 52 50 58 66 70 78 83 83 84 83 85 84 90 98 91 97 90 98 69 64 66 67 71 72 72 72 70 68
50 53 52 53 52 52 55 61 63 62 59 60 53 48 51 55 57 67 70 74 78 83 86 87 89 89 95 99 99 100 100 100 99 100 99 99 94 77 75 76 76 74 77
57 54 53 50 53 61 65 68 68 67 68 64 57 50 51 48 53 64 65 65 73 81 85 87 90 96 96 98 99 100 100 100 100 100 100 100 100 99 98 98 97 82 85
51 49 49 48 52 59 65 68 62 62 60 49 41 40 53 58 63 59 59 60 56 60 76 88 91 96 100 100 100 100 96 96 93 98 99 99 99 99 99 99 99 99 98
32 28 26 32 36 39 43 44 41 36 31 30 33 83 72 58 64 81 63 84 66 56 90 70 97 98 95 98 98 99 100 99 98 100 96 100 98 98 99 98 98 98 99
16 16 19 19 20 22 23 25 29 28 34 41 44 51 51 56 56 93 54 45 59 52 60 92 62 98 97 95 87 99 99 99 100 99 99 98 99 98 96 98 99 99 99
17 19 20 21 24 31 37 49 56 59 52 46 43 43 42 39 40 41 42 44 42 40 45 51 57 54 71 76 99 91 97 96 99 99 98 99 97 98 92 96 97 99 99
21 23 26 28 28 33 38 57 43 58 42 30 34 35 36 37 40 42 43 44 44 43 43 47 49 50 51 50 90 80 92 82 98 98 99 98 98 99 100 97 98 98 99
20 18 18 18 18 20 23 28 29 33 36 38 38 38 39 38 38 41 44 48 50 48 49 52 56 52 50 55 77 83 85 92 94 85 99 95 99 99 99 100 99 99 95
20 20 22 25 29 33 36 37 38 39 38 38 36 32 27 28 32 38 41 40 41 42 42 44 56 60 57 62 77 82 89 97 95 97 96 95 99 100 99 98 98 97 97
23 27 31 34 36 37 39 38 39 38 36 29 24 20 25 33 36 36 35 40 44 41 43 46 61 66 68 69 87 85 99 87 95 98 91 94 100 98 97 96 90 58 26
34 37 39 40 40 39 38 40 39 27 22 19 19 29 36 39 45 47 42 48 43 43 46 60 68 75 78 77 100 100 98 93 99 99 96 95 96 74 29 13 7 4 2
39 38 38 38 37 37 32 22 21 22 17 33 44 48 46 46 46 46 45 45 43 44 48 56 62 68 82 83 97 94 99 98 97 94 90 45 12 7 3 2 5 8 8
27 28 29 27 18 17 22 24 19 23 39 44 48 45 45 44 45 46 48 50 49 54 60 62 70 74 93 96 90 92 99 97 83 30 10 5 2 2 8 9 8 8 9
16 16 16 18 25 27 21 28 37 40 41 44 44 45 44 31 34 27 30 36 37 27 32 44 61 74 80 85 91 96 89 42 16 6 3 2 7 11 11 11 13 15 15
16 22 29 33 26 35 43 44 43 43 45 44 43 16 8 8 8 7 6 5 4 4 4 5 11 30 49 59 69 62 33 8 3 2 2 10 12 12 14 16 16 16 16
28 34 37 34 41 47 48 48 48 43 27 11 10 11 11 10 9 8 7 5 4 3 2 2 2 2 2 2 2 2 2 2 2 4 13 14 15 17 18 18 18 20 21
41 42 40 51 54 55 53 49 19 10 10 12 13 15 15 15 14 13 12 10 8 5 3 2 2 2 2 2 2 2 2 2 9 16 15 17 19 24 23 23 24 25 22
45 41 53 60 59 56 33 12 10 11 12 14 16 18 19 19 19 18 16 13 10 6 4 3 2 2 2 2 1 2 4 11 17 17 18 20 25 26 28 27 28 29 28
47 58 64 61 51 19 11 10 10 12 13 15 18 20 22 23 22 22 19 17 12 7 4 3 3 3 3 3 5 9 14 18 20 22 24 24 27 28 29 33 37 39 38

GFSMA_700_rhum_084.txt.gz
RH
46 46 47 47 48 48 49 49 50 50 50 51 52 52 53 54 56 56 54 53 54 54 56 59 58 58 54 48 49 50 48 44 45 45 44 44 44 47 48 47 46 45 43
43 44 45 46 47 49 51 51 52 53 53 54 54 56 56 58 59 60 58 57 56 58 58 60 62 63 61 56 53 53 53 52 47 48 47 47 47 50 51 51 51 50 47
40 42 45 50 56 58 58 58 57 54 54 57 58 59 60 59 58 57 55 54 55 60 64 64 64 66 67 65 60 59 57 57 54 50 51 50 50 51 53 55 55 54 51
48 51 57 58 55 55 51 44 38 34 34 33 34 36 39 43 47 50 53 57 60 61 65 73 72 70 71 73 71 66 65 62 62 58 54 55 54 53 54 58 59 56 54
48 50 43 44 46 45 41 39 41 43 42 42 42 41 40 40 40 40 43 47 56 68 74 74 77 78 77 78 79 78 73 74 72 69 64 58 58 57 57 59 62 60 59
42 40 42 46 45 46 47 48 47 44 47 50 51 50 50 47 44 44 50 57 64 69 76 81 82 84 86 87 87 88 91 83 81 83 79 73 62 60 60 62 65 65 64
46 44 43 43 44 46 50 48 48 52 59 62 62 60 60 54 47 47 57 61 66 72 76 85 91 91 92 93 94 96 94 97 96 95 99 89 88 82 72 67 65 70 68
53 54 55 55 55 52 53 53 56 61 64 68 70 67 58 53 41 38 51 54 69 73 68 77 84 90 96 98 100 99 99 100 100 96 99 98 98 100 100 99 90 77 80
59 61 60 55 52 52 51 56 62 68 71 72 71 72 62 43 32 37 42 55 61 60 67 71 68 74 84 86 98 100 99 100 100 100 99 100 99 100 99 98 99 100 98
54 56 55 54 54 54 53 62 69 66 63 55 49 47 37 29 34 71 65 64 65 61 62 63 55 61 80 74 98 94 98 99 99 100 100 99 98 99 100 100 99 99 99
45 52 52 52 50 48 48 52 44 37 32 34 33 29 30 34 44 54 49 49 44 82 46 43 65 56 62 96 63 86 97 99 98 96 99 98 98 98 99 100 98 98 99
30 30 29 27 23 21 21 23 24 24 24 32 40 40 41 42 40 41 42 37 35 40 38 40 44 43 46 46 52 54 79 91 93 79 77 99 93 99 97 98 98 98 98
18 19 18 18 18 19 21 24 26 29 36 61 54 58 58 36 32 33 34 35 33 34 37 41 40 41 44 48 50 52 57 57 61 74 96 100 99 96 98 97 98 98 98
15 16 17 19 22 24 27 30 32 33 36 56 42 40 32 35 37 37 35 33 29 30 34 38 36 41 50 56 56 52 54 56 62 84 100 98 100 92 99 96 98 97 97
18 20 22 21 22 22 26 27 26 23 32 33 35 37 38 39 39 35 31 28 33 35 32 36 41 40 42 47 58 57 60 63 64 86 96 99 99 98 93 100 100 98 96
22 21 20 19 18 20 24 28 32 35 36 38 39 40 40 35 29 25 27 35 39 38 38 43 41 36 39 45 56 63 66 68 76 97 81 92 96 93 90 100 99 100 96
22 20 19 19 20 24 29 34 36 38 41 41 42 41 29 24 24 30 37 44 48 44 48 45 35 34 39 44 51 64 68 65 74 85 78 83 85 86 89 94 91 90 77
22 22 25 29 31 35 38 42 43 41 41 41 26 23 22 34 39 42 44 44 45 45 43 39 40 43 48 51 55 62 69 79 71 70 81 91 89 90 89 64 24 12 8
33 34 36 38 39 41 42 42 41 38 24 24 21 26 40 39 40 42 42 44 45 46 45 49 45 40 44 47 58 65 73 78 79 89 94 93 57 18 10 6 4 2 5
37 37 35 33 33 34 35 29 21 24 23 20 33 41 38 40 42 41 38 30 29 26 18 10 7 6 8 15 27 42 61 76 83 89 64 27 12 5 3 2 5 9 9
31 26 22 20 19 18 19 27 25 24 34 43 42 40 43 33 13 9 9 8 8 7 5 4 3 2 2 3 4 11 28 52 74 69 44 11 3 2 5 11 10 11 12
26 20 16 16 22 30 30 31 44 46 44 44 43 41 11 10 11 11 10 9 10 9 8 7 5 4 3 2 2 2 2 3 4 4 3 2 2 9 12 12 13 16 18
23 20 24 30 36 32 36 47 49 48 47 34 13 10 12 13 14 14 15 15 15 14 13 11 8 5 3 3 2 2 2 2 2 2 2 3 11 14 14 15 18 20 20
33 31 33 40 38 49 52 55 53 36 13 10 12 14 16 17 18 19 20 20 19 19 16 12 8 6 4 3 2 2 2 2 2 2 6 13 14 15 16 18 21 24 23
43 44 45 41 54 62 60 51 16 9 10 12 14 16 18 20 22 23 24 24 22 21 18 14 11 8 5 4 4 3 4 5 7 10 13 15 18 20 24 25 26 28 28
52 50 45 55 66 63 43 13 9 10 11 12 15 17 20 23 26 26 26 25 24 22 21 18 14 11 8 5 5 6 7 10 13 16 19 20 22 24 28 30 33 36 39

GFSMA_700_rhum_087.txt.gz
RH
46 46 47 47 48 48 49 49 50 50 51 51 52 53 53 54 55 58 60 60 58 56 54 54 57 60 62 61 58 52 49 49 49 46 46 47 46 45 46 48 48 48 47
45 46 46 46 47 47 48 51 52 53 55 57 53 57 59 60 62 62 62 59 57 57 57 57 59 61 63 65 65 63 58 55 55 54 49 48 49 49 48 50 52 53 52
40 42 43 44 45 49 56 58 58 57 48 46 38 35 35 36 40 44 49 53 56 59 61 62 61 60 63 65 67 68 68 64 62 61 59 53 51 52 52 52 52 55 56
40 41 43 49 55 58 56 53 46 40 36 38 39 39 39 38 38 39 41 42 46 50 55 61 64 65 66 70 70 70 70 75 72 71 70 67 59 54 55 54 55 56 59
45 50 55 56 50 44 45 43 40 41 44 42 40 42 44 44 46 44 46 47 52 55 62 65 72 76 77 75 76 78 77 75 79 85 86 87 80 63 57 58 57 58 60
39 45 46 40 40 43 45 46 45 45 46 45 47 51 55 56 52 54 50 48 52 59 67 73 75 77 81 86 89 92 94 89 86 86 88 98 98 98 97 89 73 87 84
41 45 44 45 44 43 45 46 46 47 49 52 55 60 62 62 62 61 59 57 47 55 63 72 74 74 77 83 87 90 90 99 97 98 99 80 100 99 97 91 100 99 98
50 53 55 59 58 55 52 53 54 54 53 60 66 69 61 58 58 62 42 26 40 56 61 68 70 68 72 77 78 79 94 100 100 98 98 99 96 98 97 94 99 98 98
57 55 58 59 62 65 64 64 58 60 62 65 71 72 62 40 36 35 28 29 67 69 68 68 68 62 60 64 56 72 85 76 88 90 98 100 96 76 94 86 95 95 94
53 55 54 58 60 61 60 62 62 60 62 62 59 46 33 36 41 32 30 34 46 46 54 48 43 54 42 67 54 62 90 89 66 100 97 78 81 70 86 98 80 92 97
39 40 45 54 59 60 60 62 61 58 49 33 26 22 22 32 41 41 46 56 34 38 36 33 33 34 37 41 42 43 53 62 71 68 83 95 100 96 97 100 100 100 98
27 28 29 34 40 43 47 39 30 25 21 21 22 22 33 62 60 53 52 33 33 35 36 37 32 34 35 37 40 43 45 49 51 56 76 91 99 85 85 96 97 98 98
26 25 22 20 20 21 20 18 18 21 23 27 28 30 34 51 49 46 30 34 36 36 29 27 33 36 34 35 42 45 50 53 54 54 57 70 78 81 92 97 99 97 97
15 16 19 19 18 18 19 20 23 28 30 31 31 32 34 40 30 35 37 37 35 27 24 31 36 34 38 40 38 39 40 54 54 58 62 72 83 100 99 93 98 99 98
13 14 15 16 18 22 24 25 29 30 24 23 22 25 32 36 38 37 37 32 27 24 32 37 38 39 44 37 35 40 45 55 61 63 62 77 77 78 96 96 92 87 100
17 20 21 21 22 21 20 19 20 21 24 29 33 37 38 39 39 39 28 23 28 35 39 42 44 46 41 38 41 45 48 56 64 65 61 60 76 75 74 89 85 86 100
23 23 22 22 21 21 20 21 23 28 32 37 38 43 42 41 32 24 25 36 39 42 44 46 44 41 40 42 44 51 53 55 56 59 58 58 63 68 75 80 80 79 80
24 23 22 21 20 21 23 27 31 36 39 44 44 40 39 23 22 37 40 40 40 41 43 44 42 38 16 12 13 21 42 56 62 61 58 61 66 71 77 60 36 25 16
24 25 25 24 26 32 32 36 38 42 44 40 37 24 23 22 40 40 41 39 39 35 33 22 8 6 5 4 5 5 12 21 33 53 64 74 74 65 40 22 10 5 4
30 31 34 33 34 38 38 38 39 39 38 24 24 22 29 42 42 41 33 22 12 9 8 8 7 6 5 4 4 4 4 3 5 14 35 61 61 56 36 9 3 2 3
33 37 38 37 32 28 27 27 25 19 25 24 26 41 43 44 38 12 9 10 10 10 10 11 11 11 10 8 6 5 3 3 2 2 3 4 4 3 2 2 2 8 10
44 42 32 27 22 18 17 20 27 27 33 42 44 45 45 23 9 11 12 12 14 15 16 16 17 15 13 9 6 4 3 2 2 2 2 2 2 2 2 6 11 12 12
42 34 30 23 18 20 29 32 31 44 48 47 46 34 11 11 13 15 17 18 19 20 20 20 19 16 13 10 8 7 5 4 3 3 2 3 3 5 10 13 13 15 16
38 34 29 29 29 33 36 42 48 52 51 34 11 11 14 15 18 19 21 22 24 24 23 22 21 20 18 15 12 10 8 7 6 5 6 8 10 12 14 15 17 19 21
46 42 38 35 39 40 51 57 57 46 15 10 12 14 15 17 20 22 24 26 26 25 24 23 22 21 20 19 18 17 14 12 9 8 10 12 16 18 20 21 23 24 27
57 54 50 49 47 54 64 63 37 10 9 11 12 14 16 20 24 26 28 28 27 26 25 24 23 23 23 24 23 22 17 11 8 8 11 13 18 22 23 27 30 33 34

GFSMA_700_rhum_090.txt.gz
RH
46 46 46 47 47 48 48 49 49 50 51 51 53 53 53 56 57 60 62 62 61 58 56 55 55 55 55 55 57 61 61 57 53 52 51 49 47 48 48 47 48 49 50
45 45 46 46 47 47 47 48 49 52 54 55 53 45 46 42 40 42 43 45 49 51 51 51 52 54 55 55 57 59 63 65 64 60 58 58 55 50 50 51 51 50 52
44 44 45 46 45 45 46 50 55 57 57 48 40 33 34 35 37 37 37 38 39 40 40 42 43 46 54 58 58 61 68 69 72 72 70 68 67 65 58 52 52 53 53
42 40 41 42 43 45 52 58 55 51 45 37 37 38 37 39 40 42 46 45 43 44 45 49 55 62 62 63 67 69 70 75 78 78 79 82 82 82 82 74 59 53 54
38 41 42 44 50 55 56 48 44 43 39 40 43 43 42 47 49 53 54 54 49 46 47 50 62 66 67 69 74 76 75 74 78 82 89 94 94 96 100 98 96 96 97
45 44 48 50 49 44 40 45 44 42 41 44 46 46 49 55 58 61 63 63 62 57 54 46 56 66 73 76 77 77 84 88 88 85 76 74 93 100 90 86 87 87 85
41 41 42 42 40 40 44 44 43 45 46 49 49 53 53 62 66 70 67 64 68 68 54 43 55 58 64 74 71 69 72 77 80 87 94 99 89 86 90 98 87 75 72
44 49 53 55 52 50 51 51 52 53 55 58 60 57 60 64 60 64 63 50 46 31 34 51 55 64 67 65 63 66 77 66 74 80 82 86 95 94 92 85 82 98 85
57 55 55 55 59 58 59 62 64 67 71 64 64 66 65 59 47 33 26 26 35 30 36 66 64 62 67 42 61 43 58 71 71 97 87 84 81 100 83 68 68 62 94
50 51 54 55 57 57 56 60 66 70 67 67 66 66 66 50 30 26 25 41 49 49 44 36 41 40 38 36 42 43 52 47 51 71 73 59 78 94 73 67 60 92 93
46 51 54 56 55 50 50 56 64 67 67 66 65 52 36 25 26 27 38 63 50 47 30 31 34 34 30 29 30 34 36 39 42 51 59 66 82 82 92 98 89 99 98
36 35 34 35 38 38 42 50 56 56 54 46 33 25 24 26 29 36 42 53 46 35 36 37 35 31 28 30 33 35 36 38 43 46 52 64 78 98 84 62 87 94 99
30 28 27 28 26 25 23 23 24 24 23 22 24 25 36 35 35 40 48 34 35 38 37 33 26 26 35 36 33 37 39 36 40 51 56 54 58 64 70 84 89 100 100
22 20 18 16 16 18 20 22 19 18 20 23 28 31 32 35 31 34 34 38 39 36 31 23 25 34 39 37 37 40 31 31 37 45 53 57 62 64 71 69 98 100 100
30 20 15 13 13 13 15 17 18 21 25 26 30 27 21 27 32 36 38 40 39 32 23 26 35 40 41 41 40 33 36 40 41 47 53 60 60 60 76 74 75 80 86
22 14 15 15 16 17 20 23 22 21 20 21 22 24 31 36 37 39 41 40 35 25 31 38 41 41 41 38 36 42 42 46 48 49 53 54 54 57 68 81 75 78 83
17 15 18 20 21 22 23 23 21 21 21 22 23 28 35 39 43 43 42 31 24 39 42 41 40 41 39 39 30 11 7 19 43 47 53 55 56 57 62 69 77 75 79
20 22 23 24 24 25 24 22 21 21 23 30 34 39 46 47 46 43 27 26 41 41 39 39 39 31 14 7 5 4 4 5 9 14 27 40 44 56 68 73 77 75 33
30 29 27 25 24 24 24 26 29 32 37 43 48 48 44 46 32 26 29 42 41 40 29 18 10 8 7 6 6 5 5 4 4 4 4 6 14 28 46 58 54 49 38
30 30 29 28 28 30 34 34 36 40 41 44 44 46 35 25 23 35 44 41 29 11 9 10 9 9 11 11 10 10 7 6 5 4 3 2 2 3 5 8 7 4 2
34 31 29 28 28 33 39 39 38 36 37 36 32 23 26 25 44 46 28 10 9 10 11 13 14 15 16 15 15 12 10 8 6 5 4 4 3 2 2 2 2 2 2
34 32 32 35 41 40 33 27 24 23 21 23 28 28 44 48 47 18 9 11 13 15 17 18 19 20 19 18 16 15 12 10 9 7 7 6 5 4 4 4 5 6 9
47 49 45 46 40 32 26 21 19 24 30 32 47 50 50 44 10 11 14 17 18 20 22 22 22 22 21 20 18 16 15 14 13 12 12 11 10 8 8 8 10 12 13
64 62 50 40 34 29 23 28 33 34 39 53 53 51 20 10 14 17 18 20 22 24 25 24 24 22 21 20 19 20 20 20 18 17 15 13 11 10 10 11 13 16 16
75 67 49 39 35 33 34 39 40 48 55 56 31 10 13 15 17 18 21 24 26 27 26 25 24 22 22 23 24 26 26 26 23 19 16 12 12 10 9 10 14 19 23
78 69 56 49 42 41 46 46 57 60 52 13 10 12 13 15 18 22 25 28 28 28 26 26 25 24 26 28 31 32 32 30 26 22 16 15 11 10 11 15 17 21 28

GFSMA_700_rhum_093.txt.gz
RH
46 46 47 47 47 47 48 48 49 49 50 51 53 54 51 46 50 45 35 34 35 37 37 39 39 39 43 47 51 54 56 59 62 65 63 60 57 56 53 50 50 50 51
45 46 46 46 46 47 47 47 48 48 52 54 55 45 38 34 33 33 33 32 35 35 38 38 36 40 44 47 49 56 60 62 63 66 69 72 71 68 66 65 59 53 52
44 44 45 45 46 46 46 46 46 51 57 56 42 36 34 36 34 37 39 44 44 45 42 39 41 45 46 55 59 60 66 67 68 72 74 76 79 84 88 91 93 90 78
44 44 45 45 45 43 44 45 51 58 54 45 37 37 40 39 38 43 48 52 53 55 53 50 48 43 40 50 58 62 65 69 74 81 84 85 90 92 92 92 98 86 75
45 45 44 40 40 42 45 54 58 51 43 40 37 40 43 44 45 50 57 59 62 63 64 59 60 57 46 50 70 74 76 66 69 68 71 78 87 89 93 96 88 84 83
44 40 39 42 44 48 52 54 43 40 42 41 40 43 46 49 52 56 62 64 65 65 57 61 63 44 43 53 67 64 78 70 74 77 78 72 81 77 83 88 90 86 88
40 44 46 46 45 42 43 39 40 43 44 46 47 51 53 58 59 62 64 65 71 57 48 49 41 36 48 54 62 70 69 68 69 87 77 82 85 84 84 76 75 92 62
53 50 49 51 46 43 43 44 46 49 52 56 59 62 63 62 60 59 56 50 44 30 29 39 36 41 73 76 67 70 43 52 45 55 77 86 92 100 99 73 98 75 60
66 63 59 60 54 47 49 54 57 62 65 66 69 74 68 66 66 68 53 29 22 24 45 52 50 50 51 46 45 49 38 36 44 64 63 71 87 83 80 86 90 70 59
75 72 74 70 69 59 56 58 61 62 62 65 63 69 69 70 72 56 33 20 23 35 59 52 48 34 37 35 35 34 31 33 38 40 41 74 86 82 82 100 82 79 62
83 96 97 95 87 55 56 60 62 60 57 63 70 66 65 67 50 29 22 27 32 36 46 48 35 35 35 31 27 25 30 34 34 33 37 47 80 88 93 96 93 86 80
81 74 65 68 68 59 54 53 54 51 54 55 61 62 44 32 24 22 35 39 41 39 36 35 37 37 34 26 25 30 34 33 34 37 38 42 49 62 90 100 93 53 70
68 51 53 56 37 33 32 31 30 29 29 29 29 29 29 40 28 41 37 36 33 38 36 39 39 36 28 28 34 36 34 36 38 30 30 30 43 55 58 62 61 62 78
55 48 39 32 26 23 21 20 21 26 28 34 40 26 42 44 37 36 29 28 34 37 38 36 38 30 29 35 39 38 38 36 28 33 34 34 40 49 54 59 59 60 70
49 43 38 38 34 23 20 15 15 17 18 20 25 47 54 29 31 26 42 37 40 40 40 33 26 32 37 40 40 39 33 32 36 39 41 40 40 46 52 56 56 57 63
48 46 39 32 24 16 15 18 18 18 20 21 24 24 33 24 26 34 40 40 44 46 44 29 31 42 42 43 40 34 30 13 14 27 38 38 42 47 50 52 50 53 59
50 46 40 30 22 21 22 22 23 23 23 22 23 24 26 35 32 37 40 46 48 47 33 29 44 42 41 39 25 9 5 5 4 5 8 12 22 29 35 42 50 57 65
48 40 32 26 25 28 27 26 26 25 25 24 23 26 28 32 40 47 52 49 46 31 33 42 44 40 30 11 7 6 6 6 6 6 5 4 5 7 10 15 24 43 59
36 31 29 29 29 29 29 28 26 26 25 26 28 34 38 44 48 55 50 41 26 35 45 41 27 13 9 8 8 10 11 11 10 8 7 6 4 4 3 3 4 7 12
40 37 35 33 33 32 31 30 32 34 35 37 40 41 45 47 48 48 31 26 41 46 35 10 9 9 10 12 14 16 16 14 12 10 8 7 5 5 5 4 3 3 2
42 42 39 37 34 34 32 31 32 37 40 42 42 40 42 43 28 28 28 49 43 16 10 10 12 15 16 18 19 18 16 15 14 12 10 10 9 8 8 8 8 6 5
46 41 37 36 34 32 31 33 39 42 37 31 28 30 26 27 29 37 51 39 9 10 13 16 18 20 21 21 20 19 18 16 15 14 14 15 15 15 15 14 13 11 9
52 47 42 37 36 38 41 45 42 32 28 24 23 25 31 37 52 54 34 9 12 16 19 21 23 23 22 22 20 19 18 19 20 20 20 20 19 18 17 15 14 12 9
63 61 55 54 52 49 48 42 34 28 26 30 35 37 51 52 52 14 11 15 18 21 23 25 25 24 23 22 20 21 23 25 26 27 26 24 22 20 17 16 12 10 8
71 70 66 69 65 56 43 37 30 30 38 42 45 57 56 36 10 14 17 19 22 25 26 26 26 24 23 22 23 26 28 30 32 32 30 28 23 20 18 16 12 10 9
74 74 74 77 72 56 43 40 37 41 45 62 64 54 14 11 15 16 18 22 26 28 28 27 26 25 24 24 27 30 34 36 37 35 32 29 25 22 19 16 13 9 8

GFSMA_700_rhum_096.txt.gz
RH
47 47 47 47 47 48 48 48 48 48 49 51 53 54 48 37 34 31 33 33 34 39 38 36 35 34 40 45 51 57 54 57 61 63 65 68 70 72 71 69 67 64 62
46 46 46 46 46 46 47 47 47 47 47 52 56 49 36 34 35 34 36 40 46 45 45 46 47 44 42 39 42 59 62 63 64 66 68 70 74 76 80 79 80 83 79
45 45 45 45 45 46 46 47 45 45 48 56 52 38 33 36 39 39 42 46 51 54 54 53 52 54 51 50 42 50 65 70 73 70 68 75 80 82 87 90 89 84 73
44 45 44 44 45 45 45 43 43 46 54 56 40 37 35 38 42 44 46 50 56 55 55 54 49 40 45 55 51 46 56 68 73 69 70 70 76 77 80 82 85 86 84
43 43 44 45 45 44 40 42 45 50 52 41 37 37 38 41 45 50 53 55 58 54 52 47 38 33 40 41 38 49 64 64 70 71 74 78 83 70 76 79 76 73 76
44 45 46 47 45 38 42 44 45 45 40 37 40 42 44 46 52 56 60 60 59 51 48 36 31 29 39 32 35 55 62 67 79 66 72 82 82 76 85 78 84 78 60
46 49 48 46 39 44 48 45 41 38 38 42 44 49 51 54 61 68 66 66 67 52 32 24 25 34 40 44 41 72 74 58 64 63 68 68 80 74 98 97 86 72 64
55 50 48 46 47 52 50 43 42 43 44 48 54 58 58 60 67 69 63 64 58 41 25 23 33 51 56 40 42 43 47 48 50 37 55 71 80 79 80 98 91 78 90
67 67 60 62 65 61 54 54 54 53 57 59 61 63 62 64 67 67 68 68 57 31 25 27 37 56 50 38 32 36 37 38 38 36 39 55 76 85 88 88 84 84 99
87 86 82 82 69 67 63 68 75 73 67 66 64 61 65 71 74 75 70 62 36 27 29 32 34 46 44 35 37 36 33 31 31 34 38 39 55 76 99 99 96 92 96
84 86 87 82 82 83 76 76 82 81 69 68 63 57 57 66 72 77 53 36 33 34 42 36 36 36 34 37 36 30 23 25 34 37 36 35 39 48 72 84 100 98 83
81 86 90 93 91 98 97 92 90 83 67 54 49 43 37 38 37 37 36 44 41 48 40 35 32 34 37 36 33 24 25 33 37 35 37 37 30 40 61 98 99 93 88
96 98 98 97 95 85 74 78 58 55 38 34 33 34 37 44 53 47 43 49 40 41 36 31 34 39 38 36 24 27 33 38 37 38 36 29 33 33 44 48 52 97 69
99 97 96 99 94 61 40 34 46 38 33 27 24 26 34 44 49 56 60 54 36 28 34 35 36 42 39 28 29 36 37 38 38 32 33 36 39 36 36 41 46 49 50
71 66 68 64 54 52 43 45 40 24 21 20 19 19 23 25 30 58 51 31 27 55 41 37 41 44 30 30 36 39 37 36 33 28 24 28 34 36 38 43 47 47 46
62 66 62 58 51 48 42 34 24 20 19 20 20 25 28 28 29 26 62 31 32 37 40 44 45 34 30 41 38 38 36 27 9 5 5 7 9 11 19 24 28 26 25
66 60 55 52 51 47 43 38 27 23 24 23 24 25 25 25 25 25 66 39 36 42 47 47 41 28 41 42 40 30 12 6 5 6 6 6 6 6 6 7 7 7 7
58 57 56 54 51 45 38 32 27 27 27 27 27 26 26 27 28 30 97 56 47 52 50 42 26 40 41 38 21 9 7 8 9 10 10 9 9 8 7 6 6 5 5
61 59 57 52 44 37 32 30 30 31 30 29 29 30 31 35 36 39 54 53 54 50 36 24 42 40 26 13 9 9 10 13 14 14 13 12 10 8 7 6 6 6 6
63 59 51 42 38 36 37 36 33 34 33 34 35 43 41 44 46 51 52 52 51 32 26 43 39 13 10 10 12 14 16 17 16 15 14 12 11 10 10 10 10 11 12
59 51 46 44 40 38 37 36 36 34 34 35 37 43 48 50 47 48 46 40 30 29 47 28 10 10 12 15 17 19 19 18 16 16 15 13 13 13 14 15 16 16 16
56 56 52 45 43 40 39 35 35 34 34 39 43 44 41 36 36 35 31 31 39 51 14 10 12 15 18 20 21 21 20 18 17 16 17 18 19 19 19 19 19 18 18
64 64 58 56 44 42 45 44 42 40 44 46 42 33 29 26 30 32 36 52 54 11 10 14 17 20 23 23 22 21 19 19 21 23 24 25 25 24 23 22 20 20 19
70 67 61 59 60 55 52 55 52 52 49 43 35 29 26 30 33 50 60 53 10 11 17 20 22 24 25 24 23 21 20 23 26 28 29 30 29 27 25 24 22 20 18
82 73 73 73 67 64 65 68 63 54 44 38 33 33 37 41 57 59 37 9 15 18 21 24 26 26 25 24 22 22 24 27 31 33 34 34 32 30 29 26 22 19 20
83 84 83 72 70 70 73 74 66 50 41 39 42 43 52 62 60 16 11 16 18 21 25 28 28 27 26 25 24 25 28 33 36 37 36 35 35 32 30 27 24 22 21

GFSMA_700_rhum_102.txt.gz
RH
46 47 48 48 49 49 48 48 48 48 48 49 49 54 47 31 28 32 33 35 38 45 44 38 34 35 33 31 42 50 45 45 59 60 64 64 61 63 65 71 76 79 78
47 48 48 48 48 48 48 47 47 48 47 46 48 54 49 35 30 33 37 42 45 47 48 46 39 30 37 47 37 50 48 45 58 67 70 67 60 61 64 65 70 69 69
47 48 48 47 47 47 47 46 47 45 43 44 48 55 48 37 35 38 43 47 51 56 56 53 45 38 25 34 49 52 60 71 73 70 72 70 66 58 68 77 72 74 79
47 47 47 46 46 46 46 46 46 44 42 42 46 49 42 39 39 42 47 53 59 64 63 62 57 44 23 28 65 53 71 78 84 84 82 81 81 59 70 79 80 78 81
46 45 45 46 46 45 45 45 46 45 42 42 41 41 36 39 43 48 53 59 66 71 66 66 60 32 22 33 44 71 67 78 81 88 98 96 79 71 68 70 83 78 96
43 43 44 44 44 44 44 46 48 47 43 44 39 42 40 45 48 55 61 66 71 71 68 65 58 30 23 25 31 58 52 47 74 78 85 81 78 70 78 78 77 79 84
42 43 42 43 44 46 51 52 51 47 45 55 51 47 45 49 55 65 69 63 73 72 70 62 47 28 26 33 34 40 42 36 72 59 58 64 77 78 73 84 78 83 88
53 55 53 55 55 57 58 58 54 48 53 65 57 53 52 59 71 75 72 66 66 69 68 44 42 35 33 42 36 40 40 34 36 34 32 54 65 70 73 88 82 88 78
68 68 68 72 67 66 72 81 84 82 78 76 76 66 65 65 68 76 77 67 66 64 49 72 44 47 41 39 35 36 33 36 36 33 28 24 38 63 79 90 79 88 100
72 72 82 91 90 88 86 90 89 91 92 95 96 86 83 84 74 81 82 72 61 62 84 81 55 49 49 39 33 32 34 38 37 33 24 28 33 40 51 77 91 92 99
74 82 85 93 95 97 99 99 98 98 98 98 98 99 98 98 100 100 98 62 56 84 55 63 48 57 52 36 32 36 37 38 38 29 26 34 36 35 34 62 83 92 98
81 84 88 98 97 100 97 99 100 98 100 99 100 100 100 100 100 99 91 81 81 70 72 70 55 63 42 33 33 37 38 38 36 27 34 35 36 36 36 31 75 88 100
82 87 86 85 78 88 95 99 100 100 100 97 100 100 99 97 79 80 90 84 81 70 78 63 39 64 39 39 38 37 41 40 28 32 38 36 34 32 33 34 67 99 98
82 76 87 93 76 81 78 87 100 90 99 100 100 98 95 90 86 77 84 86 73 76 72 72 52 68 38 47 40 41 43 38 27 41 42 39 32 32 35 37 39 53 62
75 69 76 80 81 75 76 84 64 61 63 60 58 54 51 49 37 36 46 52 56 45 70 74 98 80 56 40 40 48 45 28 38 41 41 35 15 11 17 29 28 29 32
78 78 72 73 73 69 70 70 73 69 57 55 53 48 42 34 29 28 32 39 48 79 78 81 81 100 95 48 45 49 36 33 44 41 35 12 6 6 7 8 9 10 11
89 87 90 82 70 75 69 69 65 59 57 57 55 51 42 35 32 30 28 27 31 38 68 94 96 41 72 57 52 46 29 44 43 34 11 6 7 9 9 9 8 9 8
80 80 97 75 72 71 66 64 62 62 60 58 56 51 42 36 34 32 31 30 31 33 43 46 90 51 99 61 52 30 42 44 38 12 8 9 11 13 13 11 10 9 8
74 70 79 77 76 75 77 72 66 64 61 56 48 42 37 34 32 33 34 37 35 36 38 82 73 64 66 54 41 33 46 37 14 9 11 14 16 15 13 11 10 9 9
80 72 69 69 70 70 69 67 67 64 58 50 43 39 37 35 34 33 35 40 45 48 68 50 53 78 60 52 30 46 30 15 10 13 16 17 16 14 13 12 12 11 12
76 72 72 74 76 75 72 67 60 54 49 45 41 41 40 36 39 39 38 39 45 49 62 59 62 59 54 33 54 26 12 11 14 17 18 17 16 14 14 16 16 17 18
78 78 78 75 70 63 58 56 56 54 50 49 45 44 45 40 40 41 43 44 48 53 55 57 62 48 34 55 22 10 13 17 19 19 18 17 16 18 20 22 22 22 22
76 69 66 67 69 68 65 62 58 55 52 48 45 48 47 50 50 44 48 51 49 46 47 45 41 38 58 16 10 15 19 21 22 21 19 18 22 24 26 26 26 26 25
66 69 71 72 73 74 73 72 66 63 62 59 58 56 59 61 57 51 50 44 39 40 41 42 42 58 16 10 16 21 23 23 22 21 20 23 27 29 30 30 30 29 28
74 76 78 82 82 81 77 73 70 65 67 67 65 67 70 70 61 53 46 40 41 44 45 61 64 16 11 18 22 24 25 24 22 22 24 28 31 34 35 34 34 33 32
77 78 77 81 86 83 78 76 78 69 65 62 65 71 78 72 59 50 48 45 47 65 72 66 11 12 19 23 25 25 25 24 24 25 29 34 37 38 37 37 37 36 36

GFSMA_700_rhum_105.txt.gz
RH
43 46 48 49 49 49 49 49 49 48 48 47 48 51 53 41 30 30 35 39 44 47 50 50 49 41 38 35 34 41 49 46 47 60 68 70 65 58 58 62 62 64 60
46 48 49 49 49 49 49 48 48 48 47 46 47 49 51 44 35 34 39 44 48 53 58 59 57 54 50 24 30 48 61 55 67 71 70 71 71 68 57 61 75 70 67
48 48 49 49 48 48 48 48 47 48 47 45 45 46 47 44 37 37 41 46 52 59 67 67 60 64 47 31 60 82 65 71 74 80 84 80 82 83 67 71 72 71 72
48 49 49 49 48 48 47 47 46 47 48 44 45 45 47 45 38 40 45 50 56 63 71 72 65 60 47 47 57 70 90 90 82 88 89 89 94 88 71 68 70 79 74
48 48 48 48 47 47 47 46 46 47 48 47 43 45 50 51 44 46 49 55 61 65 71 72 68 61 45 25 53 69 73 70 77 80 81 86 88 75 77 72 74 77 80
46 46 46 46 45 45 45 46 45 46 48 50 45 48 53 52 48 54 57 63 66 64 66 70 72 64 41 29 33 42 67 81 77 74 86 76 76 71 77 82 75 82 80
43 43 44 44 44 44 44 45 47 49 53 54 48 50 58 54 55 60 63 75 73 70 70 65 63 48 37 41 38 39 37 42 44 43 72 75 74 89 88 82 69 87 82
54 56 50 51 55 54 51 56 61 63 63 66 56 60 68 65 60 63 71 77 76 73 71 77 69 70 82 46 44 41 38 37 36 36 39 38 39 73 82 73 86 89 90
63 56 57 62 70 70 70 69 67 84 89 95 92 90 78 74 71 76 83 85 86 75 84 64 73 72 96 71 52 41 36 36 35 38 36 33 26 37 62 84 86 91 91
65 65 68 64 63 80 89 81 83 98 97 91 97 97 98 98 97 92 90 94 95 93 62 66 100 79 69 82 63 41 37 36 39 40 39 32 23 28 43 71 79 89 98
73 76 74 81 92 93 95 100 98 100 99 99 99 98 98 98 99 99 98 99 100 100 91 99 100 72 66 61 65 37 34 39 41 42 40 27 28 35 38 37 53 80 96
91 95 99 92 82 90 94 83 94 90 89 97 99 100 100 100 100 100 98 99 98 100 98 92 87 80 66 60 70 43 38 38 42 44 41 27 34 38 35 35 36 70 94
80 77 81 94 83 72 70 83 85 88 94 100 98 99 99 100 100 100 99 99 98 99 90 86 85 87 75 69 85 45 49 41 44 46 36 32 43 40 37 33 33 77 100
77 84 83 70 63 62 80 84 80 78 93 90 83 91 88 82 74 98 98 93 91 78 57 83 81 77 90 73 97 65 48 45 48 47 32 42 41 41 36 34 41 60 72
77 75 72 74 73 75 80 75 74 81 79 71 64 58 58 56 56 55 54 58 61 54 60 62 54 57 81 81 98 100 76 52 52 44 30 44 42 35 20 20 34 53 83
82 79 82 86 82 78 79 78 75 76 75 74 70 59 58 57 53 47 40 36 39 43 65 50 51 81 81 98 95 69 85 59 55 32 37 43 37 14 7 10 12 19 26
70 81 91 78 90 90 89 83 83 76 76 68 62 61 60 58 56 52 43 37 35 33 31 38 62 73 71 86 93 51 92 63 53 32 43 38 19 7 7 9 9 9 9
81 95 89 77 66 83 82 77 72 69 71 72 68 64 62 58 51 47 42 38 37 38 36 43 58 98 67 65 95 70 81 60 36 45 45 21 8 8 10 12 12 11 10
93 83 95 81 73 71 71 77 78 76 74 70 68 65 62 56 48 42 40 37 40 43 41 49 62 68 59 98 91 94 64 55 35 46 36 11 9 12 14 14 12 11 10
95 99 90 80 76 73 71 70 71 72 72 70 66 60 55 49 45 43 44 41 40 46 48 54 56 70 90 92 78 83 64 37 50 36 12 10 14 16 16 14 13 12 12
86 83 80 77 76 74 74 74 73 69 64 59 55 52 51 50 48 45 44 46 43 44 53 52 56 64 99 68 72 65 42 51 37 15 12 14 16 16 15 14 14 14 15
81 79 75 71 73 75 73 68 61 58 57 55 53 51 49 48 47 51 52 49 50 46 49 55 60 71 72 68 69 47 46 34 12 12 16 18 18 17 15 16 19 21 22
71 71 70 72 69 62 60 60 59 58 57 56 56 56 57 56 54 50 55 58 58 53 53 53 54 59 63 63 48 54 35 11 14 18 20 18 18 16 19 22 25 26 26
68 62 61 64 65 64 63 62 64 65 63 60 58 58 60 64 64 62 58 65 62 59 56 52 52 56 55 48 57 28 10 15 19 21 21 20 18 21 25 27 29 30 30
62 66 68 66 64 65 64 60 63 69 66 66 62 64 65 64 65 70 72 74 65 57 53 49 50 51 51 67 29 11 16 21 23 23 22 21 22 27 30 32 33 33 32
65 64 66 63 56 61 72 74 78 78 75 71 66 60 60 62 67 76 81 75 62 54 52 53 52 61 74 29 10 17 22 24 24 24 22 22 26 31 34 36 36 37 36

GFSMA_700_rhum_108.txt.gz
RH
37 41 45 47 49 50 50 49 48 48 48 47 46 47 51 48 35 31 34 38 43 49 57 60 60 59 56 41 27 45 60 58 60 66 69 68 68 64 60 55 45 55 52
44 47 49 50 50 50 49 49 48 48 48 47 46 46 45 46 38 34 36 41 46 53 60 67 64 71 64 48 54 70 74 73 70 74 76 80 77 80 80 62 57 58 58
46 48 49 50 49 49 49 48 48 47 48 48 45 45 45 46 44 38 38 43 49 55 62 69 65 65 67 46 57 73 76 85 88 84 82 84 83 87 86 68 65 69 68
48 49 49 50 49 49 48 48 48 47 47 48 49 45 45 46 49 42 42 44 51 58 66 73 74 68 62 54 52 71 87 84 76 74 76 78 82 85 75 64 73 72 77
49 49 49 49 49 48 48 47 47 47 47 48 49 50 46 47 49 50 47 49 53 62 64 68 76 76 69 55 42 40 58 87 90 86 74 80 86 77 74 80 79 74 78
49 48 48 48 48 48 47 46 46 46 47 49 52 53 50 50 59 58 52 54 58 66 68 66 65 65 63 44 45 46 37 43 52 71 68 78 88 80 82 92 89 76 80
46 46 46 46 46 45 44 45 46 46 49 55 60 61 58 58 59 68 60 58 61 69 73 72 65 71 67 51 72 47 41 35 37 45 69 76 83 75 69 97 93 75 88
43 44 50 55 55 48 51 58 62 60 58 62 63 89 96 84 72 75 71 70 72 78 78 82 96 97 61 79 90 60 53 33 31 34 37 39 49 73 79 85 82 83 90
69 67 62 60 55 57 64 74 81 81 76 76 97 98 97 99 97 96 92 94 87 87 96 94 94 81 92 97 72 61 62 39 30 33 37 38 39 39 44 59 81 87 87
79 78 76 75 74 80 81 85 92 94 97 95 96 100 98 99 99 99 99 100 100 97 97 99 100 98 99 100 79 83 53 38 29 36 38 38 37 34 28 42 64 82 89
77 73 76 80 90 97 99 99 96 91 78 87 86 83 80 89 100 99 100 100 99 99 99 100 99 100 100 88 85 67 57 48 37 38 40 41 38 27 26 34 36 68 82
76 84 92 88 84 90 73 81 90 77 82 77 77 94 100 97 99 99 99 99 100 100 100 100 99 99 90 86 88 80 66 60 46 44 42 44 40 25 32 37 34 34 61
86 80 79 80 82 88 83 70 68 71 75 76 81 98 97 100 99 100 98 96 99 99 100 100 100 91 81 89 84 82 81 78 64 49 50 49 39 32 41 39 37 39 64
71 71 72 82 90 77 66 59 60 72 69 74 91 84 70 67 71 72 70 65 81 94 84 68 65 58 70 65 75 78 87 97 100 77 49 53 38 41 44 40 36 52 90
71 70 69 72 72 65 59 68 74 77 77 79 80 80 80 71 60 59 63 60 69 74 56 58 69 62 79 64 55 77 90 98 97 81 56 53 36 42 44 39 35 39 92
62 63 68 78 73 66 63 76 82 87 85 84 83 78 79 67 61 60 58 55 51 45 43 41 40 45 58 59 70 90 81 83 99 79 66 55 35 45 40 22 18 48 89
72 74 70 67 77 77 63 69 88 85 86 87 87 72 70 69 67 64 61 56 50 47 44 52 64 98 50 96 100 82 92 86 76 97 66 48 41 46 35 10 10 15 26
75 76 73 81 78 90 76 67 73 79 78 77 75 75 74 75 76 69 72 76 67 60 59 45 44 52 50 60 80 100 67 84 96 71 63 35 48 42 14 9 9 10 10
84 92 92 91 76 94 85 72 68 67 66 66 68 69 69 68 65 60 57 54 52 44 43 43 43 47 50 61 99 90 81 90 74 83 58 42 48 22 10 10 12 12 11
94 93 94 93 95 91 78 69 67 65 65 65 64 62 60 57 53 51 50 51 51 53 46 47 46 45 56 74 71 97 88 96 84 68 42 52 38 13 11 14 14 13 12
83 86 91 89 80 81 76 68 64 65 65 64 60 56 54 52 50 49 50 50 51 54 56 57 48 51 68 76 88 97 100 78 75 59 50 40 16 12 15 16 15 13 12
71 74 85 83 82 76 71 64 64 58 55 55 53 51 49 48 48 48 49 53 55 53 57 60 58 57 67 65 71 100 83 75 68 49 47 18 14 15 16 15 14 14 15
72 71 79 76 68 63 57 53 56 58 55 53 51 50 48 46 44 49 53 55 60 62 61 62 64 62 63 70 72 77 73 66 61 51 18 14 16 17 16 16 16 19 22
60 72 71 66 57 53 56 58 58 54 49 49 55 59 57 55 52 55 58 60 64 66 67 71 67 65 60 61 65 66 58 60 48 16 13 16 18 18 17 17 22 26 28
72 70 59 55 56 54 53 52 50 54 66 66 66 67 66 60 55 51 53 56 63 72 74 76 69 61 57 56 56 57 65 45 12 13 17 19 20 19 19 23 28 31 33
61 62 60 58 53 53 52 56 63 67 68 69 70 70 68 63 56 54 56 63 73 78 80 74 65 61 56 55 60 71 54 13 14 18 21 21 21 20 23 29 33 35 36

GFSMA_700_rhum_111.txt.gz
RH
32 38 41 46 48 48 49 48 48 48 48 46 45 44 43 42 38 31 32 36 42 47 53 62 65 63 60 61 37 63 68 72 75 71 69 73 72 74 76 69 48 46 47
39 43 47 49 50 50 49 49 48 48 48 48 46 46 45 44 42 38 33 35 41 49 54 61 72 76 71 69 56 45 59 74 78 77 72 76 79 77 77 66 58 60 58
44 48 49 50 50 50 49 49 48 48 47 48 48 48 46 46 45 42 38 36 40 48 55 59 60 74 70 66 55 50 63 75 83 84 77 71 72 76 73 64 69 69 66
47 49 50 50 50 50 49 49 48 48 48 47 48 50 50 48 49 52 49 42 42 46 55 62 61 67 62 58 64 64 54 44 69 88 86 71 76 82 76 75 81 77 68
48 49 50 50 50 50 49 49 48 48 48 48 48 50 53 53 51 54 59 54 48 50 53 63 65 61 57 60 56 43 45 43 51 64 75 71 70 77 78 77 87 85 73
49 50 50 50 49 49 48 48 47 47 48 48 49 53 58 59 56 58 64 67 60 58 63 68 71 65 63 70 57 64 78 50 42 49 54 73 94 88 79 74 69 86 75
49 50 50 49 48 47 47 46 46 48 51 54 56 63 64 79 90 94 95 76 73 69 69 76 76 80 90 92 74 79 69 58 46 35 40 52 64 79 85 81 79 98 83
49 48 47 46 45 46 48 50 53 64 71 75 76 76 79 85 99 97 98 97 87 87 77 79 84 93 100 98 90 89 78 62 61 44 29 32 37 55 77 70 77 74 82
46 47 51 60 69 69 68 71 77 85 93 95 90 85 72 72 82 89 99 99 99 99 98 96 99 99 98 100 99 99 93 70 60 39 32 33 36 38 41 45 65 76 90
65 65 75 77 81 82 85 94 97 99 99 83 78 81 84 87 91 99 95 95 98 100 100 99 96 99 98 99 100 100 86 84 52 51 32 34 36 38 40 39 44 65 84
88 85 86 82 87 84 98 99 87 68 83 83 88 89 86 92 92 97 99 100 99 98 98 100 100 99 100 100 99 99 91 71 65 61 42 40 37 38 39 30 28 35 71
85 90 89 95 98 86 78 75 85 89 85 80 81 81 82 98 98 96 99 99 99 99 100 99 99 100 100 100 99 99 99 76 67 76 57 41 42 40 41 24 33 69 44
96 95 93 92 86 87 91 83 78 72 65 70 78 72 80 90 78 88 98 99 92 71 82 99 98 93 86 78 71 70 93 100 84 89 97 99 58 46 44 28 41 49 40
95 97 87 83 79 84 87 75 67 63 74 72 68 70 81 79 71 64 61 60 59 61 59 74 99 100 87 77 76 86 98 64 99 97 94 85 75 55 45 32 44 40 49
84 72 68 73 85 82 75 70 68 75 75 76 77 77 76 76 76 76 68 61 60 59 57 54 50 48 48 53 88 100 94 99 88 100 93 98 77 64 47 37 45 40 38
65 64 74 81 80 74 68 62 54 51 54 57 63 77 80 83 78 71 68 66 65 63 60 54 49 47 50 53 70 77 51 100 100 98 99 83 89 70 43 44 48 40 32
59 64 73 70 72 67 57 56 52 47 48 54 66 75 77 78 76 73 73 73 74 73 72 72 71 73 76 76 68 58 88 99 90 89 90 90 74 61 39 49 46 30 48
66 68 71 67 64 61 63 64 67 66 59 60 61 64 66 69 68 67 67 66 64 62 60 60 66 55 52 56 62 67 58 76 93 98 84 99 91 65 43 52 39 17 29
81 80 77 79 80 82 76 61 64 69 65 60 53 51 49 52 54 54 53 52 50 49 49 49 48 48 48 51 60 60 62 99 99 98 93 96 87 58 46 52 21 11 13
76 82 83 89 84 84 72 68 60 67 50 49 46 49 47 49 49 49 48 46 45 44 44 45 46 49 52 55 61 68 76 94 99 99 99 94 79 45 55 44 14 11 12
70 72 81 80 69 77 72 61 54 63 49 48 45 45 44 45 45 46 45 42 41 42 43 45 45 47 53 64 98 94 91 96 98 100 100 86 76 51 56 29 15 14 13
59 65 75 83 76 76 64 57 50 55 53 50 47 45 42 39 38 39 38 36 37 42 47 49 54 52 54 63 69 71 96 85 81 100 92 78 59 60 34 16 14 14 13
58 60 74 72 57 52 53 61 58 53 52 50 43 38 39 48 52 54 54 54 54 52 52 54 60 63 62 68 67 66 67 75 82 85 77 60 63 42 18 15 15 13 13
53 62 60 47 59 70 68 60 52 51 49 45 40 40 49 52 58 59 56 54 52 49 51 56 62 69 72 74 69 67 69 67 72 71 64 60 33 19 16 15 15 14 16
51 63 70 77 74 65 58 54 51 46 47 53 50 49 53 57 62 63 59 56 52 51 54 60 68 75 78 75 68 64 64 67 66 68 61 25 15 15 16 16 15 18 23
70 79 80 70 63 58 56 49 49 50 51 54 53 52 57 60 65 63 62 59 55 55 63 73 79 81 81 73 68 65 79 71 77 60 19 14 15 16 18 17 19 25 30

GFSMA_700_rhum_114.txt.gz
RH
21 28 39 44 48 48 49 49 49 48 47 46 45 43 40 38 37 33 30 31 35 43 48 52 56 69 73 68 55 51 46 63 72 72 71 70 72 71 70 62 53 51 47
29 37 43 47 48 49 50 49 49 49 49 49 48 47 46 46 44 41 39 34 35 40 48 54 54 59 66 63 62 53 49 56 74 79 79 75 69 68 72 65 66 63 56
39 45 48 50 50 50 50 50 49 48 48 48 49 50 50 48 48 49 48 46 39 40 46 53 59 56 53 55 54 51 46 40 49 58 84 85 68 72 77 69 73 72 67
47 49 50 50 50 50 50 49 49 49 48 48 47 48 48 49 51 50 51 56 56 47 46 52 60 65 63 56 58 63 45 40 34 36 51 73 77 68 74 75 76 79 74
49 50 51 51 50 50 50 49 49 49 48 48 47 48 48 50 53 55 53 55 63 64 57 56 60 69 71 70 66 65 63 74 52 40 38 44 55 77 85 83 81 75 83
49 50 51 51 51 50 50 49 49 48 48 47 48 51 55 59 62 68 80 85 86 72 69 64 65 75 80 81 88 90 83 72 62 66 43 40 59 68 97 98 83 79 89
50 51 51 51 51 51 50 48 48 48 48 51 61 69 71 69 69 71 79 89 97 88 83 76 79 86 81 95 97 98 98 98 82 67 57 53 55 54 73 68 82 72 78
49 50 50 50 50 50 48 47 48 50 56 74 84 83 74 76 76 74 94 100 97 99 91 85 86 97 93 97 99 98 100 98 96 70 50 34 40 55 48 58 81 66 71
46 48 49 50 50 47 48 51 61 66 80 88 82 60 55 65 67 74 83 97 98 100 100 100 98 99 98 98 99 98 98 100 98 74 53 46 32 38 44 47 57 73 81
44 47 48 48 50 66 79 82 87 83 94 77 83 63 61 71 72 76 78 86 96 95 99 100 99 100 98 100 100 100 100 100 99 85 82 64 41 37 41 40 42 48 67
47 50 53 62 73 89 93 97 97 90 72 62 85 69 64 72 72 73 90 81 84 97 100 99 98 100 99 94 98 99 100 100 99 88 72 76 49 40 46 47 48 46 38
65 68 74 76 82 91 99 97 76 74 64 76 73 68 72 77 70 82 85 89 97 98 97 92 84 89 99 100 99 99 100 100 100 97 85 76 86 86 61 49 50 34 37
74 93 90 92 97 99 94 85 89 80 76 73 70 66 68 65 76 81 76 69 71 82 71 62 61 62 81 96 95 86 88 79 99 100 88 88 85 85 74 56 54 38 53
94 96 83 99 98 95 99 92 88 77 68 64 66 69 66 69 73 72 72 72 68 61 58 58 58 57 55 62 55 52 70 88 99 98 99 93 94 80 86 64 54 40 46
100 98 88 88 98 94 93 89 72 69 66 68 70 68 67 71 75 74 75 73 69 69 68 67 65 59 55 50 52 66 74 66 80 62 74 99 98 85 71 83 58 37 42
97 99 85 95 87 84 82 79 74 67 63 66 67 63 56 61 72 75 75 73 71 70 68 68 70 70 70 71 65 74 78 80 86 67 76 99 99 97 77 81 63 40 48
87 85 83 80 85 86 81 80 74 66 58 52 49 42 44 47 49 45 53 59 67 66 60 59 58 59 57 56 71 72 65 71 83 89 97 87 93 95 71 83 68 48 53
80 76 87 92 91 86 83 75 67 68 66 55 48 47 43 45 45 46 45 48 46 44 42 46 45 44 45 47 50 50 53 68 80 74 79 68 100 94 95 84 68 51 61
80 88 92 91 88 80 75 77 73 63 63 57 54 47 43 48 47 45 46 47 43 39 40 38 38 40 40 44 47 48 48 55 79 100 100 98 88 100 97 96 61 58 60
85 90 94 88 84 84 82 81 82 76 73 60 49 43 40 43 42 43 42 41 43 40 35 34 32 34 38 42 46 50 59 73 92 91 100 100 99 99 100 90 55 62 51
99 100 93 87 85 87 88 82 77 79 69 58 48 43 38 42 43 38 37 33 36 33 31 32 35 36 38 41 53 54 84 99 100 97 97 91 96 98 96 84 60 59 29
89 92 92 88 82 84 86 78 79 70 62 56 50 40 40 38 35 35 44 40 45 43 38 45 50 50 50 52 57 62 71 88 99 97 100 97 88 100 90 78 59 52 24
79 76 73 73 80 86 87 84 74 62 55 49 42 39 38 36 38 41 43 47 50 48 50 51 48 49 53 59 63 66 69 73 76 82 80 76 86 89 80 65 58 32 18
64 60 61 64 78 90 88 74 63 62 52 45 44 38 41 44 52 50 49 50 51 51 49 48 46 49 53 59 67 72 74 74 73 72 74 86 83 74 70 60 27 17 15
62 56 60 62 68 71 68 66 64 55 49 46 42 44 48 52 55 57 57 57 55 54 50 50 48 50 55 64 71 78 80 76 70 73 79 72 71 70 44 26 19 14 13
61 58 60 66 72 74 72 63 57 54 46 47 47 45 52 58 56 55 63 60 60 59 54 52 52 55 65 75 79 82 81 74 71 76 75 71 67 32 18 15 14 14 13

GFSMA_700_rhum_120.txt.gz
RH
21 23 20 21 25 36 44 44 43 44 42 41 42 42 43 43 43 43 42 41 40 38 37 38 41 45 52 52 52 50 53 57 48 40 34 38 55 68 62 64 62 62 63
20 24 17 26 34 43 45 46 47 48 49 48 48 48 48 48 48 48 49 49 50 51 50 47 44 44 48 53 58 61 58 59 62 64 59 43 33 44 59 64 67 63 57
21 23 20 32 44 42 46 50 51 51 50 50 50 50 50 50 50 51 50 51 52 53 57 60 59 61 55 58 61 64 66 70 75 89 85 62 56 33 42 50 74 76 72
24 20 28 43 43 45 51 51 52 51 50 49 48 48 48 49 50 51 53 55 57 56 58 62 69 80 78 70 70 72 83 97 94 88 94 81 63 63 50 62 86 94 86
26 20 31 42 42 50 52 52 51 50 50 49 49 48 48 49 53 59 62 66 75 80 87 91 92 86 71 78 85 94 95 95 92 95 93 89 91 79 76 60 71 85 91
27 22 32 39 50 52 52 52 51 50 50 50 49 48 48 50 65 72 70 75 78 79 85 89 95 89 79 81 81 89 91 96 89 94 89 96 92 96 94 88 76 79 77
22 26 39 48 51 52 52 51 51 50 50 50 49 48 50 60 71 73 72 77 76 75 85 87 89 89 96 94 92 94 97 100 99 98 98 98 97 97 83 75 72 78 73
20 30 44 50 52 52 52 51 51 51 50 49 48 51 58 68 74 81 79 73 77 76 83 88 89 82 81 81 88 87 89 99 93 96 96 100 98 96 63 54 67 85 93
23 35 46 52 53 52 52 52 52 51 50 48 52 67 76 80 87 87 79 76 70 66 78 87 95 92 99 87 98 99 90 89 81 88 95 98 99 97 73 54 43 67 70
26 38 48 52 53 53 53 52 52 51 49 56 76 71 79 89 94 91 71 68 68 64 75 89 88 91 99 94 77 83 72 76 83 94 100 99 100 100 85 73 53 46 52
26 38 47 52 53 53 52 51 51 51 56 67 78 77 70 71 79 87 75 64 58 60 62 75 75 81 85 66 62 64 64 66 84 99 98 96 95 99 100 96 99 92 80
26 35 44 49 51 51 50 50 52 73 82 75 62 74 77 69 75 76 67 63 52 61 64 65 62 62 59 58 59 61 58 58 63 67 71 73 80 80 95 97 86 78 82
32 32 38 45 47 47 48 53 65 76 69 76 87 70 80 71 72 69 61 54 51 49 58 69 69 67 65 65 66 65 63 59 54 53 56 61 71 82 100 98 99 86 87
36 35 33 37 41 45 51 71 90 90 77 59 70 69 74 79 75 63 60 50 46 38 46 59 63 67 67 66 67 67 69 71 73 67 59 68 76 84 85 88 91 99 93
46 43 40 42 46 61 79 86 94 94 75 70 87 83 75 62 64 66 54 42 41 34 38 51 42 48 57 57 53 50 52 56 62 70 79 83 85 68 95 100 95 91 99
48 50 50 48 57 81 92 96 94 91 81 85 94 78 65 57 53 58 46 37 32 32 31 40 41 39 35 35 36 36 40 43 46 53 61 74 84 70 81 96 95 99 98
78 70 74 60 73 82 91 84 86 97 80 97 80 70 62 48 48 45 39 36 33 37 40 43 41 38 38 37 38 38 37 37 38 40 48 56 71 65 75 88 93 100 85
92 90 84 95 91 88 94 85 83 99 91 96 79 70 55 51 47 46 40 38 30 34 38 33 33 32 34 35 34 34 34 32 33 35 42 46 60 68 86 94 76 98 80
99 99 100 100 100 98 99 100 100 99 98 84 77 64 54 58 54 49 42 34 33 34 32 29 29 31 29 29 29 30 29 28 31 32 36 40 48 63 97 94 100 100 100
90 82 95 99 100 100 94 95 100 97 88 83 77 67 65 65 61 47 41 38 36 34 33 30 28 30 33 33 32 36 39 36 43 44 39 45 84 95 97 98 100 99 99
92 92 93 91 97 88 89 91 96 90 89 85 77 80 78 72 60 46 42 39 34 34 32 31 32 31 34 33 35 39 42 42 46 46 52 53 76 98 100 100 100 90 97
100 100 99 100 93 92 86 91 93 92 91 87 92 90 75 78 66 51 47 38 35 33 35 36 35 39 42 42 40 38 40 41 43 51 56 65 98 100 100 100 100 89 89
99 99 100 98 97 99 100 99 98 96 94 97 96 91 83 75 58 54 46 40 37 39 39 37 44 42 40 39 44 42 42 44 46 53 57 75 82 95 96 99 92 85 91
83 88 96 98 99 98 94 99 99 99 100 99 98 94 84 72 60 51 43 40 42 42 40 40 46 47 42 38 36 39 42 46 49 54 63 70 89 90 88 85 82 89 87
82 91 96 96 97 99 99 98 98 98 99 96 92 86 81 66 58 49 43 45 43 41 41 43 47 48 49 49 46 43 43 45 49 62 70 78 87 82 80 78 81 79 76
86 87 87 84 82 83 80 80 81 78 81 85 89 87 74 63 55 49 46 46 45 42 44 50 50 49 49 52 55 50 53 53 57 68 79 90 92 91 81 75 80 75 72

GFSMA_700_rhum_123.txt.gz
RH
82 15 21 22 18 28 28 28 31 35 34 32 31 36 40 44 46 47 48 49 49 49 48 47 45 46 49 51 56 58 57 60 67 80 84 72 56 39 52 76 77 72 70
47 17 23 20 23 29 31 36 41 39 38 41 45 47 48 48 49 50 50 50 51 53 54 57 58 56 62 56 57 58 63 70 82 89 89 87 72 61 48 43 43 62 74
21 20 26 19 27 30 34 40 42 43 46 47 49 50 50 50 48 48 50 52 54 56 57 58 61 65 81 80 66 76 75 89 92 93 94 94 87 84 80 66 55 65 78
15 22 26 20 29 31 36 42 46 48 50 50 50 50 49 49 49 50 56 59 61 67 74 80 85 90 91 82 80 96 96 99 95 92 90 89 89 91 86 90 71 58 68
14 22 27 22 29 34 40 46 50 51 50 50 50 49 49 48 49 59 65 69 72 75 76 81 82 91 92 86 79 80 85 92 92 96 91 90 90 92 86 93 84 81 74
16 22 27 26 27 36 45 51 51 51 51 50 50 49 48 49 54 67 73 64 71 74 74 74 83 91 92 94 96 92 91 89 95 93 95 96 92 98 100 98 89 87 81
18 23 26 22 26 42 50 52 52 51 51 50 51 50 49 52 58 74 68 78 70 71 72 70 81 86 87 93 94 84 86 87 95 98 99 98 100 99 95 91 93 100 96
19 24 26 20 31 48 52 53 52 52 51 50 50 49 49 57 66 78 86 78 72 60 58 68 83 84 90 84 90 87 83 94 87 91 90 95 99 98 99 99 76 56 74
20 26 24 22 43 52 53 53 52 52 52 50 50 49 50 67 78 79 89 80 74 65 60 64 77 82 82 80 84 84 89 72 76 74 85 92 99 94 99 94 80 57 63
21 29 24 29 49 54 54 53 52 52 52 51 49 49 57 74 78 68 73 80 74 63 58 67 78 82 87 92 88 73 64 64 62 61 64 74 91 92 93 98 91 94 86
22 31 24 34 50 54 54 53 53 52 52 52 50 59 67 84 78 65 69 78 64 56 56 66 67 70 75 73 64 59 60 64 61 58 60 63 68 75 74 80 88 99 95
25 34 26 35 48 54 54 54 53 52 52 52 62 66 61 66 76 70 62 65 59 55 52 56 56 63 65 62 62 64 67 67 67 67 64 61 64 61 73 81 97 98 93
30 36 27 35 45 52 53 53 53 52 51 59 68 68 70 88 62 74 73 54 49 53 58 51 52 58 66 67 64 60 60 63 66 67 69 68 64 69 76 84 89 87 92
38 37 28 33 42 48 50 51 50 51 58 74 66 60 80 71 65 70 48 49 50 48 41 37 51 62 64 63 58 50 48 52 42 42 45 44 51 54 75 77 77 77 88
41 45 38 33 37 42 45 47 48 64 83 77 76 71 58 78 90 76 55 56 52 42 34 38 36 40 39 38 33 32 35 37 34 33 36 38 44 50 49 70 69 70 100
42 45 42 42 38 40 41 47 61 81 84 91 92 77 65 89 79 67 52 43 40 29 31 32 30 28 28 28 31 32 32 32 30 29 33 33 37 46 50 58 63 72 73
58 59 45 45 44 45 47 50 68 84 87 91 98 87 78 96 75 60 44 44 38 34 31 28 28 30 32 33 32 31 30 29 29 30 28 30 34 38 40 46 53 66 72
78 55 52 55 57 56 57 63 90 95 76 91 89 88 89 91 69 53 52 46 42 40 37 34 34 31 31 31 28 25 26 29 30 29 30 33 32 36 41 45 63 79 71
100 92 77 65 62 64 66 76 97 98 88 96 93 97 99 79 72 61 56 51 47 41 35 33 32 30 30 26 25 25 28 35 39 37 38 41 45 43 42 45 60 99 95
99 98 94 90 91 92 95 97 100 99 99 98 100 96 93 80 67 62 60 62 52 42 39 36 32 30 29 28 27 28 33 36 40 40 44 47 52 55 53 63 63 97 100
96 100 99 99 100 100 99 99 100 97 97 100 99 95 85 78 78 77 75 72 61 49 44 38 33 30 31 30 30 31 36 39 36 36 38 43 48 61 65 73 100 100 97
99 100 100 99 100 100 100 99 98 98 100 99 98 88 87 84 88 88 74 74 60 46 43 34 30 32 35 35 37 36 36 35 36 34 39 41 46 50 91 100 100 100 97
100 100 100 99 99 100 99 99 100 100 99 97 94 94 92 94 95 91 80 72 56 48 42 34 32 35 36 35 36 39 36 35 37 38 39 44 54 71 86 94 90 97 99
99 100 98 100 100 100 98 93 89 94 94 92 88 95 93 96 98 94 80 69 54 48 39 36 40 40 39 39 42 40 36 39 39 43 43 44 53 75 90 96 91 86 78
87 96 94 91 98 100 100 99 100 84 87 97 88 97 100 99 100 96 80 65 56 46 41 40 42 43 43 44 45 46 45 43 44 47 49 48 64 73 92 86 84 85 78
82 76 88 98 97 99 99 99 99 99 96 99 96 94 100 100 99 91 79 65 53 46 44 46 46 44 45 48 48 48 46 50 50 52 60 55 61 82 80 84 95 86 83

GFSMA_700_rhum_126.txt.gz
RH
84 76 50 21 22 17 21 22 21 21 21 21 23 26 30 38 45 47 48 49 50 52 53 54 56 56 57 69 58 57 63 74 84 85 84 85 84 79 77 76 55 54 67
86 82 44 21 23 17 22 24 25 25 29 29 30 41 46 49 48 49 49 50 52 54 56 58 58 60 66 83 81 67 81 92 90 91 90 85 86 90 93 88 80 62 64
86 90 34 22 24 19 24 24 31 34 33 40 46 48 50 49 49 49 51 54 56 60 64 71 76 77 80 88 84 83 98 95 99 96 95 91 94 86 98 99 97 82 66
88 87 27 23 24 20 22 26 35 40 44 48 50 50 49 48 48 49 55 61 64 70 74 77 74 77 90 92 92 93 90 93 93 98 100 95 89 95 87 98 100 93 81
92 82 24 24 25 22 22 32 38 44 50 51 52 51 49 48 48 51 61 71 72 75 79 72 77 80 83 81 81 82 84 92 91 90 90 91 90 93 95 100 98 94 95
99 82 20 25 26 23 26 38 43 50 52 52 51 50 50 49 49 51 64 67 74 69 68 68 72 80 82 84 79 82 91 92 91 82 85 92 96 97 90 86 89 96 100
89 79 19 25 26 22 28 41 48 52 52 51 51 51 50 49 51 58 68 72 75 67 60 51 61 73 73 87 89 89 78 82 75 76 79 78 88 88 87 80 88 83 83
99 67 20 25 27 23 38 47 51 52 52 52 51 51 50 49 52 64 77 82 81 72 56 51 61 67 73 79 83 86 76 76 67 68 68 68 68 77 90 82 72 85 72
97 68 22 24 26 24 45 48 52 52 52 51 51 51 50 49 54 73 82 81 85 72 61 51 55 61 67 79 74 87 78 78 67 62 59 59 61 69 78 77 74 85 86
98 73 27 24 27 23 46 52 53 53 52 52 51 51 50 50 60 80 75 64 78 80 66 55 54 56 59 63 72 78 74 66 61 62 60 58 58 61 66 65 74 76 82
100 75 29 22 29 25 48 54 54 53 52 52 52 52 51 55 61 79 74 64 74 65 62 52 50 51 53 56 60 61 60 60 65 64 64 63 65 63 64 63 72 79 80
96 55 29 23 30 28 49 55 55 55 53 53 53 52 56 60 65 72 79 75 73 65 54 43 48 44 41 52 59 58 61 63 60 62 60 58 58 60 62 68 75 71 71
87 75 29 24 31 34 48 56 56 55 54 53 52 53 60 71 70 82 88 76 80 61 50 48 43 36 34 42 46 46 49 55 54 45 40 36 42 43 47 53 62 71 62
74 78 27 25 36 34 47 57 56 56 55 54 52 54 67 72 72 78 75 72 62 51 45 46 32 35 34 34 40 46 37 33 32 30 31 32 33 33 36 42 49 62 64
37 40 32 35 42 38 50 57 55 55 54 53 53 74 69 70 73 69 83 90 70 54 58 49 32 32 33 32 32 30 29 32 31 30 30 30 30 29 30 29 36 50 54
30 30 32 41 50 44 51 52 54 52 52 52 67 75 76 73 73 91 83 78 69 55 51 48 33 30 25 26 27 26 25 25 25 24 25 25 26 26 27 27 28 34 42
28 30 34 48 51 49 45 49 52 49 53 65 71 79 85 81 78 92 95 91 70 51 47 39 33 29 26 26 26 25 25 24 23 24 24 25 24 26 26 27 27 28 32
38 40 42 46 58 50 53 44 44 45 59 73 87 78 99 91 83 95 95 87 69 50 49 45 36 30 29 29 27 26 24 24 24 23 23 25 27 28 30 32 36 37 39
58 60 62 54 73 70 88 64 58 62 68 80 88 76 92 91 88 98 99 90 66 59 56 50 44 38 34 31 28 27 27 26 24 24 25 25 26 28 33 40 45 46 47
100 90 92 92 94 89 79 69 70 73 79 92 98 99 96 99 90 100 98 88 66 61 63 57 49 42 37 32 29 29 29 29 27 26 24 26 30 29 34 42 50 53 72
100 100 100 97 98 93 75 70 74 72 74 89 97 94 100 100 98 100 100 83 79 71 62 59 52 42 40 32 28 29 30 29 28 28 30 29 30 29 32 41 50 55 67
99 99 100 99 99 96 99 100 99 100 100 100 100 100 100 99 100 100 97 91 91 80 69 68 55 45 40 33 31 32 32 33 32 31 30 28 30 31 36 43 47 76 100
100 100 100 100 100 100 100 100 100 100 100 100 100 100 100 100 97 96 93 96 95 89 76 70 54 44 40 33 36 35 37 36 36 35 34 34 35 39 41 47 51 74 100
100 100 100 100 100 100 100 100 100 100 100 100 100 100 100 99 100 99 97 96 96 95 92 78 60 49 41 38 39 41 42 41 41 40 36 34 39 42 49 57 64 88 90
84 98 98 99 98 99 100 100 100 99 99 99 100 100 100 99 93 100 90 99 100 99 89 76 59 48 41 41 42 44 42 41 44 44 38 36 40 43 50 59 73 89 99
78 79 85 90 93 100 100 99 100 99 100 98 100 100 100 100 99 100 100 99 100 97 87 70 55 47 44 45 45 45 43 44 46 45 45 44 50 51 56 65 72 90 97

GFSMA_700_rhum_129.txt.gz
RH
24 35 80 71 30 21 18 14 18 19 19 21 21 20 23 27 36 44 48 49 50 52 54 57 58 59 60 71 81 73 81 90 85 82 81 78 84 87 83 88 93 90 74
24 36 77 77 36 22 19 15 20 21 20 21 22 25 29 41 48 48 50 51 52 54 58 62 66 69 69 74 83 81 93 90 96 93 93 95 93 84 89 92 99 99 90
25 46 78 78 38 22 20 18 22 21 21 23 30 34 45 49 49 50 51 53 56 60 65 70 70 72 71 81 83 85 92 88 89 94 99 94 94 92 86 89 98 92 90
34 56 85 82 37 23 21 18 22 22 25 30 37 48 50 50 50 50 51 58 66 69 72 75 69 69 80 86 89 87 88 92 98 100 100 92 88 86 84 77 86 86 90
45 90 89 85 44 23 22 18 22 26 32 36 47 50 50 50 49 49 52 64 70 67 72 67 62 61 65 78 82 87 88 90 92 91 86 86 89 87 82 76 71 83 85
62 99 99 95 44 24 24 19 24 31 37 48 52 52 50 49 48 49 54 64 66 72 64 58 47 46 56 73 79 72 77 88 88 83 81 92 70 72 80 70 70 81 79
91 91 97 96 42 23 26 22 27 36 41 50 53 52 50 50 49 50 57 67 71 75 63 52 45 43 55 57 80 78 87 79 70 80 68 62 60 60 59 73 74 61 76
89 84 84 88 56 24 28 24 29 39 45 52 53 52 51 51 50 50 54 70 77 81 72 64 47 36 39 52 63 65 81 76 64 66 66 59 58 56 57 72 66 61 71
98 96 92 95 69 26 29 23 31 43 49 52 52 53 51 51 50 51 58 73 80 74 80 72 52 38 39 48 62 72 67 82 80 69 61 60 54 51 56 54 61 54 58
99 86 84 90 95 29 31 26 33 47 52 54 53 52 52 52 51 52 66 82 66 62 73 69 51 41 36 43 49 57 66 66 69 60 64 56 48 49 52 54 52 54 52
94 94 96 100 100 28 32 29 36 49 54 54 53 53 52 52 51 57 81 80 78 68 60 56 54 43 34 37 33 44 50 56 60 61 55 43 37 37 41 46 47 45 39
80 95 94 98 96 38 34 31 41 54 55 54 54 54 54 53 54 79 79 85 80 73 67 61 52 44 37 32 32 40 45 47 45 38 35 30 28 32 33 34 34 32 32
87 87 87 95 84 49 33 34 42 55 56 55 54 54 55 54 56 73 79 77 80 79 76 69 54 47 42 29 34 34 30 31 27 27 26 25 26 28 28 28 27 27 28
76 92 100 100 88 61 33 36 40 53 57 56 56 55 54 53 72 82 77 72 74 80 67 60 54 50 42 28 28 24 22 24 24 25 24 27 26 26 26 26 24 25 25
89 96 98 99 82 59 30 36 38 51 58 57 57 56 55 58 77 86 69 74 74 78 67 62 55 51 43 29 26 25 22 24 25 24 23 23 23 23 24 23 24 24 24
100 92 100 99 96 70 35 38 38 52 60 59 58 57 63 66 80 89 75 81 81 85 69 70 57 48 42 33 28 26 25 24 27 24 22 21 23 24 22 22 22 23 24
100 100 99 96 89 50 37 43 41 52 62 59 58 56 61 69 88 85 94 83 84 90 84 88 65 48 40 35 30 29 27 28 25 23 23 23 23 24 23 24 28 27 26
98 99 96 89 55 48 41 45 41 51 60 59 59 55 61 76 88 86 94 91 98 98 81 98 69 50 44 41 37 31 30 26 24 25 25 25 25 25 24 23 24 28 34
99 91 64 39 37 47 49 52 51 49 61 63 63 65 70 66 82 83 93 95 95 99 87 98 74 57 53 52 41 36 33 28 26 27 27 26 25 24 24 23 24 30 33
99 95 93 94 68 51 56 62 69 61 60 74 84 89 75 87 90 90 86 99 92 98 100 92 98 70 66 57 46 40 35 30 29 30 29 28 26 26 23 24 24 28 34
99 86 85 80 76 70 63 70 77 81 82 81 96 96 99 80 78 85 100 96 100 98 100 99 97 84 64 56 46 41 36 32 30 32 32 31 28 26 25 23 25 28 32
98 99 84 77 75 86 86 88 89 93 93 98 98 99 94 88 92 93 100 100 99 100 100 99 99 83 70 59 49 44 39 34 33 34 34 32 31 28 26 24 27 31 37
99 100 100 99 100 99 100 99 99 100 99 99 99 98 99 100 100 99 99 100 100 100 97 99 100 91 77 70 53 45 40 36 36 36 34 33 31 31 28 27 30 32 38
100 99 98 100 100 100 100 100 100 100 100 100 100 100 100 100 100 100 100 100 99 99 98 99 99 98 87 73 58 49 42 37 38 38 37 36 35 34 30 29 34 39 46
99 100 100 100 100 100 100 100 100 100 100 100 100 100 100 100 100 99 99 99 98 99 99 99 99 96 87 73 59 49 43 41 43 43 41 39 42 37 33 34 40 41 45
65 67 61 62 65 84 94 93 100 100 99 100 100 100 99 99 100 100 95 95 98 99 99 99 99 94 87 72 57 50 49 49 48 47 47 45 44 39 35 38 46 52 58

GFSMA_700_rhum_135.txt.gz
RH
64 55 50 53 57 73 56 27 19 14 18 17 18 23 24 20 19 25 37 45 49 51 53 56 61 63 64 65 75 78 81 85 88 88 83 75 76 67 52 53 48 59 58
76 59 54 49 52 70 66 30 22 18 21 20 20 24 22 19 21 30 43 48 50 52 56 60 65 68 67 76 88 90 89 90 90 92 84 87 79 71 57 50 50 54 59
84 68 52 50 55 65 80 37 26 19 22 22 21 23 20 19 23 37 48 50 51 54 60 62 62 68 64 79 84 87 90 96 95 93 92 88 79 72 56 44 48 58 60
88 77 56 46 52 66 85 57 29 23 20 26 25 22 22 22 27 45 49 50 50 55 60 57 59 50 45 43 48 70 84 86 88 91 85 80 71 66 49 37 40 55 54
85 85 73 52 51 62 83 79 41 26 21 26 26 24 22 26 38 49 50 50 50 53 60 62 64 55 43 37 34 37 51 76 76 74 84 71 59 57 45 29 39 49 44
85 83 87 74 60 62 76 87 54 31 24 28 29 28 29 29 44 51 52 50 50 55 62 66 68 62 54 38 32 34 36 46 55 72 78 72 51 46 33 29 36 49 38
91 93 88 84 78 60 63 93 64 33 27 28 30 31 36 37 48 52 52 50 50 56 61 68 67 69 62 53 36 31 35 44 48 56 74 60 52 37 32 29 45 32 25
84 87 87 94 98 78 58 94 90 38 31 29 30 34 40 40 49 53 52 51 51 53 60 70 54 59 63 51 40 32 32 39 41 48 50 51 49 35 27 23 39 25 20
76 80 88 93 97 95 74 80 95 77 33 31 29 34 38 35 48 53 52 52 52 53 61 72 63 57 49 44 44 35 29 31 29 35 41 44 40 25 21 19 19 19 19
55 74 92 98 96 100 94 78 96 87 42 33 34 34 38 40 48 52 53 53 54 54 61 69 69 63 62 56 46 38 31 29 22 32 36 36 29 20 17 18 18 18 16
51 54 72 74 96 100 100 91 99 93 80 33 32 33 38 46 50 53 53 54 55 54 58 70 72 70 67 67 56 41 32 29 21 24 30 27 23 20 18 17 16 17 16
52 53 61 66 79 92 100 92 97 98 93 40 36 37 40 51 51 55 55 56 58 54 61 72 71 63 54 51 52 44 35 32 23 20 18 19 21 18 19 18 16 16 18
52 53 58 61 59 90 94 87 99 100 99 83 52 38 42 50 59 58 58 57 56 55 63 74 69 69 71 78 75 72 65 40 30 20 17 18 18 18 19 18 16 16 17
51 53 52 51 53 55 73 66 73 76 100 99 98 52 52 58 60 60 58 60 59 60 65 72 74 72 77 76 79 81 78 67 39 29 20 18 18 18 18 18 18 17 17
47 51 52 51 46 52 58 50 51 58 75 98 100 95 42 55 65 64 60 58 62 65 61 79 80 77 74 76 81 81 76 77 73 38 28 21 20 20 19 19 19 19 19
32 45 47 48 50 49 45 44 41 49 66 98 98 91 44 59 69 77 65 58 62 69 67 84 82 83 84 82 88 79 83 69 75 66 36 27 24 22 20 21 20 20 20
26 26 34 40 44 43 41 41 37 43 60 81 100 100 91 52 66 77 73 62 61 70 86 96 96 98 96 94 88 96 83 77 77 72 45 37 29 24 23 22 22 22 22
32 24 25 28 30 31 32 33 30 39 58 71 98 100 88 55 60 71 75 68 62 66 86 96 98 99 99 99 88 93 96 94 90 78 57 47 36 28 25 24 24 24 23
27 22 21 23 16 21 28 28 25 35 55 73 97 98 67 76 68 69 88 80 71 90 89 89 96 100 98 98 98 99 100 98 94 86 85 85 41 32 28 28 28 27 25
51 72 56 38 36 35 37 30 54 72 87 97 99 97 92 94 96 80 87 99 99 97 97 99 98 100 99 100 99 99 100 100 100 98 99 85 45 36 31 31 32 29 27
77 78 69 100 82 96 82 71 92 100 100 100 97 100 99 99 99 99 98 93 90 93 99 99 98 99 99 100 98 100 99 100 98 99 89 63 46 38 33 32 34 33 32
99 96 99 100 100 100 100 100 100 99 100 100 100 99 100 100 99 100 98 99 98 98 99 100 98 98 97 100 100 99 100 99 99 92 80 62 48 39 35 34 36 35 33
100 100 100 100 100 100 95 100 100 100 100 100 100 100 100 100 100 99 100 100 99 100 99 99 99 100 100 100 100 100 100 100 98 92 80 66 56 58 65 53 40 39 36
100 97 96 98 98 99 100 100 100 100 100 100 100 100 100 100 100 100 99 99 100 99 99 100 99 100 99 99 100 100 100 99 99 94 93 78 61 50 46 43 43 42 40
99 100 100 99 98 99 98 95 91 92 93 92 94 94 99 99 98 97 99 99 100 100 99 99 100 100 100 99 99 99 99 99 99 98 96 91 73 56 50 49 47 46 44
82 88 96 92 88 89 95 97 94 96 89 86 90 92 89 86 98 90 78 85 87 85 95 98 99 99 99 98 98 98 99 99 99 98 96 80 62 57 54 54 50 52 50

GFSMA_700_rhum_138.txt.gz
RH
69 63 55 55 67 71 73 46 27 20 18 20 21 25 28 27 25 22 26 38 45 49 51 54 59 63 64 65 78 83 80 86 88 84 82 78 74 73 65 33 27 38 39
80 69 64 54 52 59 64 70 33 24 18 20 22 25 29 28 25 24 28 40 47 50 53 57 60 60 66 68 86 90 92 91 90 90 87 85 75 64 58 24 18 37 41
83 83 69 59 55 49 54 74 56 29 21 19 21 24 27 27 24 24 30 43 49 50 54 57 53 54 52 57 72 78 80 92 90 88 90 76 74 61 48 23 16 26 37
79 85 85 70 56 50 51 65 79 36 26 19 20 23 27 25 23 25 32 48 50 51 53 58 58 60 52 43 37 38 44 61 76 80 78 73 71 42 47 23 15 25 26
80 78 81 82 60 49 44 55 78 62 30 24 22 23 23 24 23 25 33 51 51 51 52 59 62 65 58 50 38 32 34 40 45 62 62 66 64 39 37 19 18 23 30
80 85 80 86 79 52 47 49 64 79 40 29 27 28 25 24 22 23 35 50 52 51 51 59 66 66 66 60 51 38 32 32 40 41 40 57 62 44 33 15 18 24 20
76 84 83 85 83 76 56 48 59 82 73 34 28 27 28 26 24 24 35 50 52 51 51 56 64 61 57 64 60 40 34 30 45 37 38 35 40 36 29 14 14 26 18
68 80 85 88 89 92 75 63 54 67 87 55 33 32 31 28 24 27 35 49 52 51 51 52 62 61 57 58 50 43 38 32 31 27 29 35 30 29 23 15 13 15 16
58 71 84 83 84 100 95 82 74 56 78 80 48 32 31 25 25 29 34 49 53 52 52 52 59 65 60 57 54 51 44 32 27 24 19 28 27 23 17 15 13 13 14
53 55 56 56 73 93 98 98 97 66 67 78 70 44 32 27 29 31 36 48 53 53 53 53 57 69 66 66 65 61 46 29 27 24 19 19 21 18 16 14 14 12 15
51 57 57 57 62 84 93 98 100 90 77 78 90 60 38 32 31 35 37 45 53 54 55 55 56 71 71 63 53 43 41 44 33 27 21 18 17 17 14 13 13 12 15
42 51 58 65 63 62 94 97 99 100 95 83 100 85 61 34 34 34 46 50 55 57 59 57 55 69 72 63 51 67 69 68 63 47 38 23 16 14 14 14 14 14 13
37 44 55 56 62 59 64 75 90 91 99 93 99 91 87 47 35 42 50 58 58 59 58 59 56 68 74 68 66 75 78 77 75 70 61 42 27 18 16 15 14 15 14
25 42 49 54 60 58 58 64 73 93 98 100 99 100 97 97 76 67 44 61 65 62 60 58 59 60 76 73 74 82 80 81 75 77 70 65 50 29 20 18 16 15 15
19 36 52 53 64 64 63 64 56 59 90 94 69 73 82 92 99 98 66 52 67 67 64 58 61 62 79 79 82 83 82 83 80 76 68 71 69 41 28 22 19 18 17
22 32 43 55 58 61 67 60 50 50 52 82 72 55 62 79 92 96 100 57 59 69 72 65 63 74 78 91 90 90 90 87 88 88 82 83 76 52 40 30 24 21 20
28 42 52 45 53 55 55 54 52 49 48 62 55 43 43 51 86 99 99 74 56 72 75 70 66 73 91 97 99 100 99 96 97 86 94 90 75 74 48 43 39 25 21
30 60 82 72 50 51 57 56 54 53 49 48 46 40 37 54 67 99 99 73 60 74 78 78 78 78 92 94 99 98 100 100 100 97 99 99 88 83 76 63 68 32 24
35 78 85 66 57 51 51 48 48 45 39 35 33 30 34 42 58 92 100 94 79 92 98 99 97 98 96 99 99 100 100 99 99 100 99 100 98 90 90 87 81 39 28
51 55 57 48 41 34 24 22 22 22 22 25 28 34 79 73 80 99 100 99 99 99 99 99 97 96 99 99 100 99 100 100 99 100 99 100 100 98 95 98 84 41 31
61 47 40 30 24 20 22 39 63 24 32 37 45 73 99 92 99 98 100 100 99 99 100 99 99 99 98 99 99 100 100 100 100 100 98 99 100 99 99 92 58 41 34
57 38 33 61 85 74 62 64 62 48 55 83 96 96 100 100 100 100 100 100 100 100 100 100 100 100 100 100 100 99 99 99 99 100 100 99 100 100 99 77 57 42 36
89 98 96 86 100 99 100 99 100 100 99 100 99 96 98 100 100 98 99 100 100 99 99 100 99 99 100 99 100 100 99 100 100 98 100 100 99 99 98 82 56 43 48
99 100 100 100 100 99 100 100 100 93 90 93 96 88 84 92 91 93 91 92 88 95 94 99 99 99 100 99 100 99 99 100 100 99 99 100 100 99 98 91 60 55 59
100 100 100 100 100 100 99 100 99 96 96 98 98 98 98 100 100 100 99 99 96 94 94 98 100 99 91 96 99 98 98 99 99 99 99 99 99 99 98 97 72 66 50
100 100 100 100 97 99 100 100 100 100 98 90 92 84 87 83 66 64 73 84 88 83 95 98 96 88 96 96 98 87 89 83 98 98 98 98 98 98 97 96 77 59 52

GFSMA_700_rhum_141.txt.gz
RH
79 72 77 65 59 73 73 70 58 32 21 16 18 20 24 26 29 28 24 29 38 46 49 52 57 59 63 64 74 86 87 84 83 81 85 79 67 64 48 22 12 16 22
81 78 74 67 57 56 64 69 72 52 28 19 18 19 21 25 28 28 23 27 38 48 50 54 57 54 58 60 65 76 80 78 77 83 86 83 60 66 44 24 11 12 17
80 82 81 71 64 57 54 57 63 70 44 26 18 20 21 22 26 25 22 22 35 48 51 54 58 57 59 50 66 69 64 55 61 65 75 74 59 54 35 25 11 11 13
84 84 85 83 71 62 56 49 53 66 67 38 24 20 21 22 25 26 22 22 30 46 50 52 58 61 64 59 47 40 34 33 35 38 52 64 50 53 31 25 13 10 10
84 86 84 83 89 77 60 52 48 52 74 63 33 24 21 22 24 24 22 22 28 47 49 50 55 61 67 65 58 47 39 31 30 30 34 36 46 45 35 24 13 12 9
82 86 86 86 87 86 76 60 49 48 64 79 47 30 24 22 23 22 22 21 26 46 50 50 53 58 63 56 64 59 39 34 28 32 30 29 31 34 26 20 14 12 10
69 72 75 84 89 84 75 74 58 47 56 77 71 47 30 24 22 22 22 21 23 43 50 50 50 53 59 52 56 54 41 40 32 27 27 23 30 34 28 22 17 13 11
62 66 67 73 90 91 85 80 75 60 51 64 79 70 47 36 27 22 22 22 25 38 50 51 51 52 56 58 54 53 50 48 37 28 25 18 20 26 27 24 16 13 12
54 62 64 72 77 91 89 85 83 79 65 58 64 81 69 52 40 30 24 23 28 36 50 52 51 52 54 60 58 58 56 49 34 25 24 19 16 20 21 18 18 14 14
33 54 60 68 71 82 93 94 90 80 83 71 64 62 83 69 51 41 30 25 32 34 46 53 53 53 53 60 61 58 52 38 36 42 34 25 18 17 18 18 15 13 14
24 36 51 59 66 67 94 100 95 91 85 85 85 72 80 85 71 50 36 27 28 36 45 54 55 56 55 55 65 62 49 46 61 61 58 52 30 20 16 15 15 14 12
13 24 37 49 56 61 70 84 82 87 96 95 99 93 75 94 83 73 46 36 27 36 49 56 57 58 56 55 69 69 53 63 67 69 65 62 58 43 30 21 17 15 13
9 11 24 37 51 61 62 66 77 81 96 97 100 96 98 91 89 99 85 52 37 35 37 48 58 58 58 56 59 77 65 71 74 74 73 68 68 64 63 49 27 19 16
9 10 29 31 40 48 61 71 74 85 96 98 98 96 95 99 90 100 96 92 76 60 40 66 52 58 59 60 59 74 76 73 81 80 78 72 67 61 69 68 51 29 22
12 11 9 36 52 67 61 74 81 78 85 72 81 85 99 100 99 98 99 100 100 98 86 95 48 52 64 60 65 69 84 79 85 85 86 84 85 82 80 81 75 43 30
18 13 11 12 48 68 68 70 76 79 77 78 78 69 83 95 85 93 88 91 98 98 88 95 88 58 64 68 68 73 81 92 92 94 92 93 89 92 88 83 77 66 39
27 24 15 19 14 50 65 58 63 72 76 77 64 60 60 73 78 88 94 68 58 98 97 98 92 71 60 78 91 91 85 91 99 99 100 100 99 98 96 93 93 82 67
28 25 20 17 17 26 78 72 71 67 69 71 61 53 58 57 59 56 56 54 61 65 71 100 83 72 65 69 82 95 92 92 98 99 100 100 100 100 99 99 92 97 89
45 33 27 22 24 25 74 83 70 61 57 56 61 56 57 59 50 45 43 46 45 73 69 98 96 86 72 71 88 98 100 99 99 99 99 99 100 100 99 100 99 94 87
46 40 33 28 28 39 82 94 76 69 61 65 64 64 56 39 34 38 63 74 77 70 94 98 97 95 87 96 99 98 99 98 99 99 100 99 100 100 99 100 99 99 96
70 56 52 72 69 71 72 80 81 86 72 60 47 34 31 34 33 40 50 92 100 100 100 100 100 100 99 98 99 99 100 100 98 100 99 98 99 98 100 99 100 100 100
93 89 71 64 63 52 39 34 34 30 28 32 32 38 38 48 45 63 77 76 99 99 99 100 100 100 99 98 100 98 99 100 99 98 99 100 99 99 98 99 100 100 100
95 86 75 76 64 49 36 30 22 21 29 61 98 96 62 87 100 99 96 93 100 94 99 100 99 98 100 97 89 91 88 93 97 98 99 98 99 98 99 99 100 99 100
89 90 74 72 62 75 77 95 96 95 98 100 99 99 100 100 100 100 85 95 87 99 100 92 96 93 98 96 98 100 100 99 97 100 98 84 75 85 100 99 100 100 100
97 100 99 97 99 100 100 100 100 100 100 100 100 100 99 99 95 85 91 97 98 99 98 99 100 96 83 83 95 97 100 94 94 95 84 73 73 84 92 99 99 99 99
99 100 100 100 100 100 99 100 100 100 99 96 94 100 99 96 90 80 76 68 54 52 52 61 70 83 94 100 100 87 79 82 82 80 88 90 84 98 99 100 94 98 99

GFSMA_700_rhum_147.txt.gz
RH
69 74 76 69 69 70 74 68 55 49 50 53 37 21 11 12 14 19 21 23 21 25 37 44 50 52 53 54 48 42 56 44 34 28 31 42 45 44 35 20 11 9 7
75 71 76 78 77 75 78 78 58 50 46 49 54 39 22 13 12 14 19 21 22 20 29 42 49 52 54 58 57 52 66 38 28 24 27 30 29 33 26 20 12 8 6
77 80 79 81 75 81 85 76 71 57 48 46 43 52 43 27 16 13 15 20 22 20 21 37 46 50 54 57 56 54 52 42 28 24 21 21 20 21 22 21 11 9 7
72 77 82 81 82 82 86 80 79 70 58 47 42 42 55 44 30 20 15 15 20 21 19 28 44 49 52 59 60 52 54 46 30 28 24 23 20 17 16 17 16 10 9
50 59 76 76 74 87 88 87 84 84 70 59 50 44 47 57 48 33 25 16 16 20 20 20 38 48 50 57 60 54 52 48 39 40 34 28 24 18 14 13 15 14 11
42 52 64 70 60 71 90 90 86 87 86 72 60 52 48 47 56 55 42 30 18 17 19 19 25 45 50 52 54 59 57 49 50 47 42 31 25 21 15 14 14 15 12
43 48 49 58 53 49 77 96 94 91 88 94 80 66 55 50 48 48 58 50 37 20 17 18 19 34 50 51 53 54 60 55 56 54 46 31 28 22 16 14 13 14 12
20 34 40 42 46 50 67 88 94 93 90 93 98 93 74 64 59 52 57 57 51 36 24 20 20 21 40 51 53 53 56 61 60 59 50 34 41 31 23 16 13 12 12
15 15 29 37 47 54 62 79 91 94 86 82 96 99 92 78 72 63 63 60 57 52 43 28 21 21 26 47 53 53 53 56 60 60 55 39 49 48 48 46 28 15 13
17 14 14 19 35 49 60 71 78 90 87 72 85 97 99 92 86 76 71 69 66 58 53 47 34 22 24 36 49 53 54 54 58 66 62 46 55 54 55 49 47 38 34
22 19 15 21 28 34 50 58 75 82 81 75 78 92 100 97 97 91 80 73 75 62 71 67 53 36 27 33 36 46 54 55 56 60 62 62 54 59 58 56 54 54 54
23 22 19 17 17 30 33 57 64 66 72 89 79 81 92 96 98 98 91 85 85 80 82 83 73 55 36 42 44 50 55 58 59 57 63 62 61 63 64 62 60 58 55
20 20 18 18 17 17 23 34 59 61 66 90 76 76 78 85 96 99 100 94 87 80 91 86 84 99 65 53 57 45 50 53 56 66 63 60 67 66 68 70 69 63 65
11 12 12 13 14 16 25 31 47 72 78 98 97 97 98 95 89 97 100 99 99 98 97 83 89 100 98 100 97 61 52 62 73 70 68 63 63 87 74 75 76 71 74
16 16 15 14 12 11 11 21 35 46 53 72 70 72 66 66 85 98 97 91 99 100 100 94 100 100 100 98 99 97 98 97 89 70 66 63 66 71 92 80 82 85 84
26 20 24 29 31 26 26 42 49 40 50 68 85 80 85 94 95 91 97 82 90 94 100 96 98 100 98 96 95 77 87 80 79 77 79 64 66 72 80 96 90 96 94
40 34 35 41 43 39 29 20 54 69 60 53 59 91 91 98 84 99 97 85 99 89 98 100 96 88 79 61 62 53 53 65 83 88 79 74 64 75 85 88 94 99 100
32 30 31 34 34 28 23 21 19 26 64 65 57 59 69 98 98 99 94 92 99 97 100 97 81 63 62 54 56 53 50 57 76 88 79 100 90 74 75 91 99 98 95
52 47 43 40 38 36 34 34 30 24 18 47 60 65 76 83 98 98 100 99 97 98 98 96 64 57 48 45 39 65 86 98 99 97 100 96 98 97 96 98 100 99 100
67 59 51 43 42 48 49 33 26 24 17 18 46 65 78 90 88 99 97 96 100 100 99 71 54 49 47 34 63 97 99 100 98 100 100 99 99 100 100 100 100 99 99
79 56 46 50 52 50 52 42 25 29 30 18 27 58 64 80 96 98 98 99 99 99 78 56 55 53 40 41 94 99 98 100 98 98 94 95 98 98 100 99 100 100 99
89 82 52 68 77 82 53 39 34 30 52 55 41 78 88 92 98 94 96 95 69 60 55 67 58 86 67 100 100 100 98 99 96 93 96 98 87 85 98 88 85 97 97
86 74 65 66 85 89 82 71 50 55 77 78 78 80 87 98 98 99 98 72 73 70 58 56 80 70 99 99 99 98 84 81 82 91 88 84 78 76 77 78 79 83 92
100 93 92 89 88 89 81 69 68 77 86 85 89 91 98 89 91 81 63 80 54 85 93 94 100 100 99 99 97 91 93 84 69 84 81 44 49 56 47 44 55 67 77
100 100 99 91 93 76 76 74 63 60 68 78 79 87 80 66 49 52 90 78 97 100 100 100 100 100 100 100 94 96 98 71 36 27 22 18 15 14 16 24 44 62 70
89 93 91 84 70 71 73 69 70 79 87 84 92 53 87 81 56 96 100 100 100 100 100 99 99 94 90 80 64 41 20 13 13 13 12 15 11 11 10 8 14 51 47

GFSMA_700_rhum_150.txt.gz
RH
66 78 77 79 72 66 71 77 73 65 55 49 50 46 29 13 13 17 19 21 22 21 28 39 46 50 50 54 57 54 57 69 35 28 23 24 23 22 24 20 14 8 6
65 75 80 76 82 80 81 81 82 79 60 51 47 52 47 31 15 15 18 20 23 22 21 31 41 48 51 54 58 57 54 51 42 30 26 24 20 18 19 22 17 11 8
47 74 80 84 83 81 80 84 83 81 74 61 53 52 53 50 36 19 16 18 20 22 21 21 35 45 49 54 59 57 54 75 57 37 34 30 35 39 33 27 23 17 11
45 60 78 77 85 89 84 79 80 84 84 76 63 55 49 54 53 41 26 17 18 20 22 20 24 39 48 50 57 58 50 52 47 38 38 34 30 32 42 21 19 17 15
61 49 68 79 78 87 89 84 84 85 90 91 78 65 57 47 54 53 47 33 21 18 20 21 19 28 46 50 53 56 56 53 49 45 46 43 34 27 24 18 14 14 14
51 54 54 58 71 73 86 79 67 85 86 91 94 82 67 58 47 45 51 51 42 27 18 18 19 20 34 47 50 53 54 57 53 54 53 50 37 32 28 21 15 11 10
31 40 50 60 57 59 67 78 68 72 86 89 97 88 86 76 61 56 48 50 51 50 33 20 19 20 22 40 50 52 53 53 58 56 56 53 39 38 38 34 31 27 14
16 17 27 53 59 61 59 66 69 60 71 91 93 93 89 88 82 76 65 62 54 58 53 40 25 20 20 23 44 52 52 52 53 58 58 58 48 42 46 46 48 46 38
19 18 16 20 39 52 60 63 68 72 68 81 98 96 99 84 86 88 81 77 64 64 57 54 49 32 23 21 26 44 53 52 53 53 55 58 57 45 52 52 53 49 48
22 22 18 16 17 40 46 54 59 92 90 99 96 98 95 85 76 83 87 85 82 73 70 67 60 52 40 28 24 29 44 53 54 54 53 54 59 57 52 55 56 54 56
22 22 23 20 17 17 43 59 61 56 79 91 99 81 100 81 80 73 81 86 87 87 83 78 68 69 59 48 31 27 33 40 48 54 56 56 60 64 66 57 59 61 61
17 23 24 24 22 18 16 50 68 54 60 67 86 97 73 100 97 99 90 86 79 82 98 93 79 81 83 68 55 40 39 43 52 52 60 58 59 57 65 76 62 66 66
12 16 23 24 24 22 20 17 40 72 77 76 78 87 85 96 100 89 98 99 91 81 85 94 95 87 92 95 94 93 72 52 48 50 57 62 61 62 63 70 81 71 73
12 13 18 22 23 22 21 19 17 33 62 78 84 85 89 86 78 99 98 91 96 83 94 93 98 95 99 99 100 100 100 96 76 71 54 49 72 65 60 61 62 77 79
21 17 13 15 18 18 19 18 18 18 20 38 60 78 87 86 94 97 100 89 100 92 75 97 94 85 96 95 100 100 99 100 100 96 80 81 79 66 63 63 69 66 78
27 26 18 14 13 12 12 13 13 14 14 22 34 58 76 84 88 92 99 97 99 91 99 94 96 98 100 98 98 100 99 98 95 73 85 95 84 73 72 76 75 74 80
38 35 31 24 18 21 26 29 29 27 23 24 24 32 68 64 85 90 93 86 91 99 100 89 95 99 99 100 99 98 93 85 72 63 62 86 83 84 83 85 83 80 82
39 44 45 39 24 25 34 42 44 42 32 30 54 61 57 58 66 76 83 95 100 98 85 93 96 92 99 100 99 98 92 70 58 55 63 81 78 82 95 99 100 100 94
36 34 32 33 33 33 34 36 32 28 24 20 19 34 59 72 66 72 78 80 98 97 98 97 97 98 100 99 96 85 85 70 59 55 57 97 98 99 99 100 99 100 99
66 60 54 48 44 41 40 39 38 37 35 31 25 22 22 53 69 76 73 76 90 98 97 98 99 98 100 97 78 75 70 63 53 45 94 87 90 99 98 98 95 90 99
91 77 68 59 44 36 35 36 38 42 46 36 26 27 19 17 60 75 89 85 97 94 97 99 100 100 99 89 74 67 65 59 73 92 99 81 98 98 91 83 82 78 85
92 90 89 79 44 59 70 78 74 52 49 41 21 28 26 18 47 84 93 87 99 98 99 100 100 98 88 74 99 73 88 94 100 96 98 99 99 86 88 92 93 90 84
81 84 84 74 60 60 75 81 85 79 51 36 31 53 53 55 75 78 96 99 98 100 96 91 98 93 76 70 61 79 78 90 96 99 98 97 92 81 58 46 60 55 49
100 100 100 86 79 80 84 89 89 82 77 58 63 77 68 66 74 90 88 98 99 100 100 84 87 78 87 99 92 100 100 100 100 98 91 83 84 68 30 16 14 14 15
84 86 95 96 91 86 91 90 86 75 65 74 80 80 77 84 91 98 96 94 86 57 55 81 74 100 100 100 100 100 98 99 99 95 76 43 19 13 12 12 11 10 10
64 88 87 88 88 77 82 88 84 80 70 67 66 69 74 72 68 72 91 67 98 99 100 100 100 99 100 100 100 98 83 48 19 13 13 13 12 9 6 4 3 3 3

GFSMA_700_rhum_153.txt.gz
RH
50 51 63 84 85 79 69 70 79 77 74 62 48 44 48 30 14 14 17 20 23 20 24 31 38 46 49 51 56 57 54 53 48 39 26 24 23 18 18 18 16 13 9
59 48 55 71 83 81 83 76 79 82 79 77 60 48 44 48 35 17 15 17 20 22 21 23 33 42 48 52 56 60 54 51 64 46 32 30 29 30 32 19 19 12 13
68 58 48 62 78 91 84 83 85 86 87 89 76 62 52 46 48 40 21 16 16 19 22 21 23 34 44 49 53 58 60 54 52 45 37 40 37 32 29 25 19 15 12
80 65 56 50 73 90 95 90 86 88 87 87 85 79 66 56 46 47 46 29 20 17 18 22 21 22 36 44 49 54 58 60 64 53 43 46 44 35 30 29 24 17 13
75 73 72 58 60 84 95 96 94 94 91 88 88 95 85 67 60 48 44 50 36 28 19 17 21 20 22 36 46 50 55 56 60 57 49 53 51 42 35 37 31 25 19
34 56 66 69 62 67 87 95 94 99 95 89 94 93 100 90 75 62 49 46 50 46 37 24 18 18 20 22 36 47 50 53 55 59 55 55 55 50 37 42 39 40 42
14 16 29 51 56 62 63 74 84 88 94 90 96 94 92 98 88 81 70 56 49 51 53 43 31 22 20 20 20 33 48 51 51 52 56 58 57 56 44 44 46 47 49
20 18 16 16 26 47 57 64 71 71 72 84 88 92 88 91 90 86 84 78 74 61 56 60 52 38 26 21 20 21 34 48 51 50 51 53 58 58 57 44 51 53 53
18 20 21 18 16 17 25 42 63 65 90 68 75 95 99 92 78 88 92 90 84 79 74 62 63 55 45 32 25 22 23 34 46 49 50 51 52 56 60 58 51 54 56
16 18 19 22 21 18 17 18 32 59 68 77 74 84 87 96 66 85 87 96 98 90 87 77 70 69 64 56 41 30 25 25 32 42 49 51 53 55 58 64 66 60 57
12 14 17 20 21 22 21 18 17 22 52 95 69 67 100 87 98 79 92 83 84 96 100 98 90 81 78 65 57 51 38 29 29 35 44 51 54 56 58 59 66 64 59
13 12 13 16 21 22 22 22 19 17 21 57 70 73 74 91 80 92 94 80 93 97 94 98 100 100 90 81 76 72 51 39 36 34 38 42 53 58 64 61 58 58 63
18 14 12 13 14 19 23 24 24 20 18 29 55 84 95 79 75 69 88 99 97 94 89 98 89 91 100 99 91 97 93 69 49 46 74 53 52 58 60 61 55 66 70
32 25 19 16 14 15 19 24 25 24 21 18 22 78 88 85 83 80 84 95 100 89 99 95 84 98 90 100 98 100 91 99 99 100 96 74 82 61 60 80 70 83 89
29 27 23 22 19 16 17 21 24 24 24 22 18 18 35 72 84 85 88 93 97 98 81 96 94 99 97 93 100 99 99 100 98 100 99 99 99 98 89 91 98 92 72
34 28 25 27 26 22 20 20 21 22 22 22 21 19 18 21 44 69 78 82 96 97 98 99 99 96 95 100 95 98 100 99 98 98 98 97 99 94 85 96 98 94 78
37 33 30 31 31 31 20 16 15 17 19 20 20 21 20 20 23 30 37 58 85 89 97 97 96 91 90 93 88 94 99 100 100 99 98 99 97 84 78 81 96 91 83
36 39 38 38 41 40 33 20 18 18 20 21 22 22 20 20 22 26 58 60 67 78 94 88 88 84 80 88 100 92 99 100 100 99 97 82 73 70 66 67 74 84 90
32 30 29 32 43 47 43 31 28 29 30 34 40 42 39 33 44 64 62 62 60 77 77 79 84 92 83 79 97 98 100 98 99 98 98 98 93 83 69 61 73 91 99
71 57 50 47 42 39 38 36 36 35 34 33 31 30 28 25 21 22 44 67 72 72 75 77 79 92 85 85 97 96 100 99 98 100 99 97 73 58 47 82 84 99 98
86 88 80 70 64 58 54 49 42 37 37 38 39 42 45 43 35 28 24 27 71 76 93 98 78 88 99 91 100 100 98 98 98 96 94 84 73 69 90 100 99 97 82
80 82 81 80 78 71 48 38 48 57 64 70 65 50 50 38 21 23 26 20 49 86 81 100 83 90 100 100 100 93 98 91 85 97 74 93 99 95 88 96 100 100 95
68 72 77 77 78 72 60 62 61 74 65 67 77 56 34 27 30 41 29 22 27 76 91 100 98 100 100 99 96 98 99 99 98 98 99 98 86 92 100 100 97 98 91
73 79 77 75 71 70 68 66 67 71 76 71 74 52 34 49 81 68 82 99 85 80 83 98 96 99 100 98 98 98 99 100 100 100 99 99 100 98 85 72 62 40 22
63 66 60 78 79 70 70 67 67 71 76 67 64 76 81 85 86 92 85 94 92 95 93 95 94 91 81 98 89 100 100 100 99 99 100 99 97 57 20 13 13 12 10
15 13 24 56 58 91 95 94 89 90 96 84 81 72 73 80 89 84 79 79 84 83 90 93 99 97 100 99 99 99 99 99 95 69 29 16 14 12 9 6 5 4 4

GFSMA_700_rhum_156.txt.gz
RH
76 68 67 68 71 87 86 77 70 76 80 77 73 62 51 47 30 16 15 17 18 20 21 22 28 36 42 47 50 54 57 54 51 61 34 32 31 31 31 31 20 13 10
65 70 67 65 60 72 90 88 84 74 78 81 80 76 62 54 51 34 19 15 18 18 21 21 21 27 34 43 48 52 54 55 52 59 42 39 38 36 31 29 26 21 18
58 56 63 66 58 57 80 92 88 90 83 88 93 92 76 64 56 55 40 26 17 17 18 21 21 20 26 35 42 48 52 56 67 66 53 41 45 45 35 33 32 25 18
35 68 70 68 69 58 56 76 93 92 94 96 95 97 91 80 67 55 56 48 34 22 18 18 20 21 20 23 34 42 47 53 55 55 55 47 52 51 44 36 38 33 30
17 35 47 62 77 72 59 56 82 99 98 96 98 96 98 98 96 68 58 53 52 42 29 21 18 20 20 20 23 33 44 47 51 53 55 55 54 55 54 40 42 41 42
16 14 23 44 68 75 64 62 58 82 99 99 99 99 98 100 99 91 71 65 54 50 51 39 28 22 20 21 21 21 32 44 47 49 52 54 56 57 57 55 42 46 48
16 18 16 15 27 51 66 66 58 59 71 98 99 99 97 96 96 99 98 85 70 56 52 55 53 42 29 22 21 21 21 28 41 48 50 51 52 56 58 58 56 45 51
15 15 17 19 17 16 21 43 58 56 54 60 80 91 97 100 90 72 91 98 95 84 63 59 60 58 52 40 30 24 22 22 25 40 48 49 50 52 53 57 61 58 50
11 14 15 16 18 20 18 16 19 36 84 51 61 72 76 76 86 70 63 70 98 99 97 82 69 67 67 60 47 38 30 25 23 24 31 43 50 51 53 53 67 72 62
14 13 13 14 16 17 19 21 19 17 19 40 53 89 69 90 87 71 62 62 67 90 99 98 94 83 73 72 68 58 47 38 30 27 25 26 34 45 51 54 55 60 65
22 18 15 12 12 14 17 18 21 22 19 17 23 51 65 95 86 85 67 75 82 90 84 100 100 98 91 82 78 74 70 60 48 40 38 30 28 28 35 44 52 61 66
23 22 20 16 13 12 12 15 18 21 23 22 19 19 29 58 92 71 68 74 92 99 90 86 99 94 98 98 98 90 87 76 65 59 47 45 38 40 41 54 46 50 66
50 24 22 21 19 16 14 13 14 16 21 24 24 21 22 29 63 90 93 96 92 78 71 86 93 88 89 88 97 100 99 98 91 82 73 69 52 55 52 80 66 60 65
49 39 30 24 23 22 20 18 15 16 18 23 25 25 22 20 24 55 81 95 93 86 78 71 87 94 97 89 91 100 99 99 98 100 99 95 86 79 97 98 83 81 86
40 42 42 39 35 30 26 23 22 20 19 20 24 26 25 22 20 21 32 86 93 89 86 74 79 83 88 98 96 97 99 99 90 100 99 99 100 98 99 98 91 92 96
49 44 44 41 40 36 30 25 23 23 20 21 24 26 26 24 22 20 19 27 60 80 90 84 79 98 91 92 98 99 98 100 98 97 99 98 99 99 96 100 98 100 96
43 42 40 38 35 32 30 29 29 26 21 18 18 21 23 24 24 23 22 26 37 48 44 37 52 68 71 86 89 98 99 94 98 97 94 98 100 97 98 99 98 98 96
37 33 36 45 42 38 35 32 32 31 24 17 16 15 15 18 18 19 25 58 52 59 75 37 40 46 62 71 86 85 81 79 92 84 93 89 100 99 98 98 98 96 93
74 51 44 39 34 40 48 48 47 42 31 23 24 27 29 33 34 38 43 54 69 62 60 53 40 53 66 74 82 79 88 85 81 89 96 100 100 98 97 96 96 84 82
90 84 68 58 52 46 41 39 39 41 41 40 40 38 38 38 37 37 36 33 27 35 71 77 72 63 72 76 80 78 86 86 88 90 100 100 100 100 100 97 94 80 75
71 75 76 75 70 66 62 58 56 52 48 41 36 36 40 37 36 37 40 36 36 32 28 26 52 85 96 97 87 84 87 92 83 88 100 98 99 100 100 98 91 83 87
61 62 67 70 76 74 75 71 58 44 40 50 57 65 70 76 74 52 49 41 25 29 32 24 26 52 77 85 92 92 96 94 99 99 100 100 100 100 96 97 98 100 100
57 60 58 60 63 64 68 68 63 58 59 61 71 67 68 74 58 43 36 32 50 50 35 30 62 90 94 99 98 99 100 99 100 99 90 99 100 99 98 100 94 100 100
40 52 60 68 59 53 56 58 60 62 64 66 70 70 57 52 45 33 46 84 74 78 86 82 80 94 100 100 100 99 98 97 98 92 99 100 100 99 99 99 99 98 98
18 15 17 31 48 72 73 69 65 63 67 68 66 62 57 68 73 80 87 92 92 79 88 96 98 99 97 97 96 99 99 100 99 99 99 99 100 99 99 99 98 82 50
25 24 22 21 18 18 19 41 72 84 93 96 98 98 89 68 71 77 93 89 88 84 86 85 88 93 89 98 100 100 99 98 99 98 98 96 88 53 27 17 15 12 8